Time,TemperatureF,DewpointF,PressureIn,WindDirection,WindDirectionDegrees,WindSpeedMPH,WindSpeedGustMPH,Humidity,HourlyPrecipIn,Conditions,Clouds,dailyrainin,SoftwareType,DateUTC
2013-09-27 00:00:00,57.2,50.7,28.88,SE,135,2.3,2.3,79,0.00,RA,,0.00,WeatherDisplay:10.37,2013-09-27 05:00:00,
2013-09-27 00:01:00,57.2,50.7,28.88,SSE,158,2.3,2.3,79,0.00,RA,,0.00,WeatherDisplay:10.37,2013-09-27 05:01:00,
2013-09-27 00:02:00,57.2,50.7,28.88,SSE,158,2.3,2.3,79,0.00,RA,,0.00,WeatherDisplay:10.37,2013-09-27 05:02:00,
2013-09-27 00:03:00,57.2,50.7,28.88,East,90,2.6,2.6,79,0.00,RA,,0.00,WeatherDisplay:10.37,2013-09-27 05:03:00,
2013-09-27 00:05:00,57.2,50.7,28.88,SSE,158,2.4,2.4,79,0.00,RA,,0.00,WeatherDisplay:10.37,2013-09-27 05:05:00,
2013-09-27 00:06:00,57.2,50.7,28.88,SSE,158,2.3,2.3,79,0.00,RA,,0.00,WeatherDisplay:10.37,2013-09-27 05:06:00,
2013-09-27 00:08:00,57.2,50.7,28.88,SSE,158,2.3,2.3,79,0.00,RA,,0.00,WeatherDisplay:10.37,2013-09-27 05:08:00,
2013-09-27 00:10:00,57.4,50.9,28.85,ESE,112,2.3,2.3,79,0.00,CLR,,0.00,WeatherDisplay:10.37,2013-09-27 05:10:00,
2013-09-27 00:12:00,57.2,50.7,28.85,ESE,112,2.3,2.3,79,0.00,CLR,,0.00,WeatherDisplay:10.37,2013-09-27 05:12:00,
2013-09-27 00:13:00,57.2,50.7,28.85,ESE,112,2.3,2.3,79,0.00,CLR,,0.00,WeatherDisplay:10.37,2013-09-27 05:13:00,
2013-09-27 00:16:00,57.0,50.6,28.85,ESE,112,2.4,2.4,79,0.00,CLR,,0.00,WeatherDisplay:10.37,2013-09-27 05:16:00,
2013-09-27 00:17:00,56.8,50.4,28.85,SE,135,2.3,2.3,79,0.00,CLR,,0.00,WeatherDisplay:10.37,2013-09-27 05:17:00,
2013-09-27 00:18:00,56.8,50.4,28.85,SE,135,2.3,2.3,79,0.00,CLR,,0.00,WeatherDisplay:10.37,2013-09-27 05:18:00,
2013-09-27 00:21:00,56.7,50.2,28.85,SE,135,2.4,2.4,79,0.00,CLR,,0.00,WeatherDisplay:10.37,2013-09-27 05:21:00,
2013-09-27 00:23:00,56.7,50.2,28.85,SE,135,2.3,2.3,79,0.00,CLR,,0.00,WeatherDisplay:10.37,2013-09-27 05:23:00,
2013-09-27 00:27:00,56.7,50.2,28.85,SE,135,2.9,2.9,79,0.00,CLR,,0.00,WeatherDisplay:10.37,2013-09-27 05:27:00,
2013-09-27 00:28:00,56.7,50.2,28.85,SSE,158,2.3,2.3,79,0.00,CLR,,0.00,WeatherDisplay:10.37,2013-09-27 05:28:00,
2013-09-27 00:32:00,56.7,50.2,28.85,SE,135,2.3,2.3,79,0.00,CLR,,0.00,WeatherDisplay:10.37,2013-09-27 05:32:00,
2013-09-27 00:33:00,56.7,50.2,28.85,ESE,112,2.3,2.3,79,0.00,CLR,,0.00,WeatherDisplay:10.37,2013-09-27 05:33:00,
2013-09-27 00:34:00,56.7,50.2,28.85,ESE,112,2.3,2.3,79,0.00,CLR,,0.00,WeatherDisplay:10.37,2013-09-27 05:34:00,
2013-09-27 00:37:00,56.5,50.0,28.85,SE,135,2.3,2.3,79,0.00,CLR,,0.00,WeatherDisplay:10.37,2013-09-27 05:37:00,
2013-09-27 00:38:00,56.5,50.0,28.85,SE,135,2.3,2.3,79,0.00,CLR,,0.00,WeatherDisplay:10.37,2013-09-27 05:38:00,
2013-09-27 00:39:00,56.5,50.0,28.85,SE,135,2.3,2.3,79,0.00,CLR,,0.00,WeatherDisplay:10.37,2013-09-27 05:39:00,
2013-09-27 00:42:00,56.5,50.0,28.85,ESE,112,2.3,2.3,79,0.00,CLR,,0.00,WeatherDisplay:10.37,2013-09-27 05:42:00,
2013-09-27 00:43:00,56.5,50.0,28.85,ESE,112,1.2,0.0,79,0.00,CLR,,0.00,WeatherDisplay:10.37,2013-09-27 05:43:00,
2013-09-27 00:44:00,56.3,49.9,28.85,SSW,202,1.2,0.0,79,0.00,CLR,,0.00,WeatherDisplay:10.37,2013-09-27 05:44:00,
2013-09-27 00:45:00,56.3,49.9,28.85,SSW,202,1.2,0.0,79,0.00,CLR,,0.00,WeatherDisplay:10.37,2013-09-27 05:45:00,
2013-09-27 00:48:00,56.1,49.7,28.85,ESE,112,1.2,0.0,79,0.00,CLR,,0.00,WeatherDisplay:10.37,2013-09-27 05:48:00,
2013-09-27 00:49:00,56.1,49.7,28.85,SE,135,1.4,1.4,79,0.00,CLR,,0.00,WeatherDisplay:10.37,2013-09-27 05:49:00,
2013-09-27 00:50:00,56.1,49.7,28.85,SE,135,2.3,2.3,79,0.00,CLR,,0.00,WeatherDisplay:10.37,2013-09-27 05:50:00,
2013-09-27 00:53:00,55.9,49.5,28.85,SE,135,2.3,2.3,79,0.00,CLR,,0.00,WeatherDisplay:10.37,2013-09-27 05:53:00,
2013-09-27 00:54:00,55.9,49.5,28.85,SE,135,2.3,2.3,79,0.00,CLR,,0.00,WeatherDisplay:10.37,2013-09-27 05:54:00,
2013-09-27 00:56:00,55.9,49.5,28.85,SE,135,1.2,0.0,79,0.00,CLR,,0.00,WeatherDisplay:10.37,2013-09-27 05:56:00,
2013-09-27 00:59:00,55.8,49.3,28.85,SE,135,2.3,2.3,79,0.00,CLR,,0.00,WeatherDisplay:10.37,2013-09-27 05:59:00,
2013-09-27 01:00:00,55.8,49.3,28.85,SE,135,1.2,1.2,79,0.00,CLR,,0.00,WeatherDisplay:10.37,2013-09-27 06:00:00,
2013-09-27 01:01:00,55.8,49.3,28.85,SE,135,1.2,0.0,79,0.00,CLR,,0.00,WeatherDisplay:10.37,2013-09-27 06:01:00,
2013-09-27 01:04:00,55.6,49.2,28.85,ESE,112,2.3,2.3,79,0.00,CLR,,0.00,WeatherDisplay:10.37,2013-09-27 06:04:00,
2013-09-27 01:05:00,55.6,49.5,28.85,ESE,112,1.2,1.6,80,0.00,CLR,,0.00,WeatherDisplay:10.37,2013-09-27 06:05:00,
2013-09-27 01:06:00,55.6,49.2,28.85,SE,135,2.3,2.3,79,0.00,CLR,,0.00,WeatherDisplay:10.37,2013-09-27 06:06:00,
2013-09-27 01:09:00,55.4,49.3,28.85,SE,135,1.2,0.0,80,0.00,CLR,,0.00,WeatherDisplay:10.37,2013-09-27 06:09:00,
2013-09-27 01:10:00,55.4,49.3,28.85,SSE,158,1.6,0.0,80,0.00,CLR,,0.00,WeatherDisplay:10.37,2013-09-27 06:10:00,
2013-09-27 01:11:00,55.2,49.2,28.85,ESE,112,1.4,1.4,80,0.00,CLR,,0.00,WeatherDisplay:10.37,2013-09-27 06:11:00,
2013-09-27 01:14:00,55.2,49.2,28.85,East,90,1.2,0.0,80,0.00,CLR,,0.00,WeatherDisplay:10.37,2013-09-27 06:14:00,
2013-09-27 01:15:00,55.0,49.0,28.85,East,90,0.0,0.0,80,0.00,CLR,,0.00,WeatherDisplay:10.37,2013-09-27 06:15:00,
2013-09-27 01:16:00,55.0,49.0,28.85,East,90,0.0,0.0,80,0.00,CLR,,0.00,WeatherDisplay:10.37,2013-09-27 06:16:00,
2013-09-27 01:17:00,54.9,48.8,28.85,East,90,0.0,0.0,80,0.00,CLR,,0.00,WeatherDisplay:10.37,2013-09-27 06:17:00,
2013-09-27 01:19:00,54.7,48.6,28.85,ESE,112,1.2,1.2,80,0.00,CLR,,0.00,WeatherDisplay:10.37,2013-09-27 06:19:00,
2013-09-27 01:20:00,54.5,48.5,28.85,ESE,112,1.2,0.0,80,0.00,CLR,,0.00,WeatherDisplay:10.37,2013-09-27 06:20:00,
2013-09-27 01:21:00,54.5,48.5,28.85,ESE,112,1.2,0.0,80,0.00,CLR,,0.00,WeatherDisplay:10.37,2013-09-27 06:21:00,
2013-09-27 01:22:00,54.5,48.5,28.85,ESE,112,1.4,0.0,80,0.00,CLR,,0.00,WeatherDisplay:10.37,2013-09-27 06:22:00,
2013-09-27 01:24:00,54.5,48.8,28.85,ESE,112,0.0,0.0,81,0.00,CLR,,0.00,WeatherDisplay:10.37,2013-09-27 06:24:00,
2013-09-27 01:25:00,54.3,48.6,28.85,ESE,112,0.0,0.0,81,0.00,CLR,,0.00,WeatherDisplay:10.37,2013-09-27 06:25:00,
2013-09-27 01:26:00,54.3,48.6,28.85,ESE,112,0.0,0.0,81,0.00,CLR,,0.00,WeatherDisplay:10.37,2013-09-27 06:26:00,
2013-09-27 01:27:00,54.1,48.4,28.85,ESE,112,0.0,0.0,81,0.00,CLR,,0.00,WeatherDisplay:10.37,2013-09-27 06:27:00,
2013-09-27 01:30:00,53.8,48.1,28.85,ESE,112,1.2,0.0,81,0.00,CLR,,0.00,WeatherDisplay:10.37,2013-09-27 06:30:00,
2013-09-27 01:31:00,53.8,48.1,28.85,ESE,112,0.0,0.0,81,0.00,CLR,,0.00,WeatherDisplay:10.37,2013-09-27 06:31:00,
2013-09-27 01:32:00,53.6,47.9,28.85,ESE,112,1.2,0.0,81,0.00,CLR,,0.00,WeatherDisplay:10.37,2013-09-27 06:32:00,
2013-09-27 01:35:00,53.4,48.1,28.85,ESE,112,0.0,0.0,82,0.00,CLR,,0.00,WeatherDisplay:10.37,2013-09-27 06:35:00,
2013-09-27 01:36:00,53.2,48.2,28.85,ESE,112,0.0,0.0,83,0.00,CLR,,0.00,WeatherDisplay:10.37,2013-09-27 06:36:00,
2013-09-27 01:37:00,53.1,48.0,28.85,ESE,112,0.0,0.0,83,0.00,CLR,,0.00,WeatherDisplay:10.37,2013-09-27 06:37:00,
2013-09-27 01:40:00,53.1,48.0,28.85,ESE,112,0.0,0.0,83,0.00,CLR,,0.00,WeatherDisplay:10.37,2013-09-27 06:40:00,
2013-09-27 01:41:00,52.9,47.9,28.85,ESE,112,0.0,0.0,83,0.00,CLR,,0.00,WeatherDisplay:10.37,2013-09-27 06:41:00,
2013-09-27 01:42:00,52.9,47.9,28.85,ESE,112,0.0,0.0,83,0.00,CLR,,0.00,WeatherDisplay:10.37,2013-09-27 06:42:00,
2013-09-27 01:45:00,52.5,47.5,28.85,ESE,112,0.0,0.0,83,0.00,CLR,,0.00,WeatherDisplay:10.37,2013-09-27 06:45:00,
2013-09-27 01:46:00,52.5,47.5,28.85,ESE,112,0.0,0.0,83,0.00,CLR,,0.00,WeatherDisplay:10.37,2013-09-27 06:46:00,
2013-09-27 01:47:00,52.3,47.3,28.85,ESE,112,0.0,0.0,83,0.00,CLR,,0.00,WeatherDisplay:10.37,2013-09-27 06:47:00,
2013-09-27 01:48:00,52.3,47.3,28.85,ESE,112,0.0,0.0,83,0.00,CLR,,0.00,WeatherDisplay:10.37,2013-09-27 06:48:00,
2013-09-27 01:50:00,52.2,47.2,28.85,ESE,112,0.0,0.0,83,0.00,CLR,,0.00,WeatherDisplay:10.37,2013-09-27 06:50:00,
2013-09-27 01:51:00,52.2,47.5,28.85,ESE,112,0.0,0.0,84,0.00,CLR,,0.00,WeatherDisplay:10.37,2013-09-27 06:51:00,
2013-09-27 01:52:00,52.2,47.5,28.85,ESE,112,0.0,0.0,84,0.00,CLR,,0.00,WeatherDisplay:10.37,2013-09-27 06:52:00,
2013-09-27 01:53:00,52.2,47.5,28.85,ESE,112,0.0,0.0,84,0.00,CLR,,0.00,WeatherDisplay:10.37,2013-09-27 06:53:00,
2013-09-27 01:55:00,52.2,47.5,28.88,ESE,112,0.0,0.0,84,0.00,CLR,,0.00,WeatherDisplay:10.37,2013-09-27 06:55:00,
2013-09-27 01:56:00,52.2,47.5,28.88,ESE,112,0.0,0.0,84,0.00,CLR,,0.00,WeatherDisplay:10.37,2013-09-27 06:56:00,
2013-09-27 01:57:00,52.0,47.3,28.88,ESE,112,0.0,0.0,84,0.00,CLR,,0.00,WeatherDisplay:10.37,2013-09-27 06:57:00,
2013-09-27 01:58:00,52.0,47.3,28.88,ESE,112,0.0,0.0,84,0.00,CLR,,0.00,WeatherDisplay:10.37,2013-09-27 06:58:00,
2013-09-27 02:00:00,52.0,47.6,28.88,ESE,112,0.0,0.0,85,0.00,CLR,,0.00,WeatherDisplay:10.37,2013-09-27 07:00:00,
2013-09-27 02:01:00,52.0,47.6,28.88,ESE,112,0.0,0.0,85,0.00,CLR,,0.00,WeatherDisplay:10.37,2013-09-27 07:01:00,
2013-09-27 02:02:00,52.0,47.6,28.88,ESE,112,0.0,0.0,85,0.00,CLR,,0.00,WeatherDisplay:10.37,2013-09-27 07:02:00,
2013-09-27 02:03:00,52.0,47.6,28.88,ESE,112,0.0,0.0,85,0.00,CLR,,0.00,WeatherDisplay:10.37,2013-09-27 07:03:00,
2013-09-27 02:04:00,52.0,47.6,28.88,ESE,112,0.0,0.0,85,0.00,CLR,,0.00,WeatherDisplay:10.37,2013-09-27 07:04:00,
2013-09-27 02:06:00,52.0,47.6,28.88,ESE,112,0.0,0.0,85,0.00,CLR,,0.00,WeatherDisplay:10.37,2013-09-27 07:06:00,
2013-09-27 02:07:00,51.8,47.4,28.88,ESE,112,0.0,0.0,85,0.00,CLR,,0.00,WeatherDisplay:10.37,2013-09-27 07:07:00,
2013-09-27 02:08:00,51.8,47.4,28.88,SW,225,0.0,0.0,85,0.00,CLR,,0.00,WeatherDisplay:10.37,2013-09-27 07:08:00,
2013-09-27 02:09:00,51.8,47.4,28.88,SW,225,0.0,0.0,85,0.00,CLR,,0.00,WeatherDisplay:10.37,2013-09-27 07:09:00,
2013-09-27 02:11:00,51.8,47.4,28.88,SW,225,0.0,0.0,85,0.00,CLR,,0.00,WeatherDisplay:10.37,2013-09-27 07:11:00,
2013-09-27 02:12:00,51.8,47.4,28.88,SW,225,0.0,0.0,85,0.00,CLR,,0.00,WeatherDisplay:10.37,2013-09-27 07:12:00,
2013-09-27 02:14:00,51.8,47.4,28.88,SW,225,0.0,0.0,85,0.00,CLR,,0.00,WeatherDisplay:10.37,2013-09-27 07:14:00,
2013-09-27 02:16:00,51.8,47.7,28.88,SW,225,2.3,2.3,86,0.00,CLR,,0.00,WeatherDisplay:10.37,2013-09-27 07:16:00,
2013-09-27 02:18:00,51.8,47.7,28.88,SW,225,1.2,1.6,86,0.00,CLR,,0.00,WeatherDisplay:10.37,2013-09-27 07:18:00,
2013-09-27 02:19:00,51.8,47.7,28.88,South,180,0.0,0.0,86,0.00,CLR,,0.00,WeatherDisplay:10.37,2013-09-27 07:19:00,
2013-09-27 02:20:00,51.8,47.7,28.88,South,180,1.2,0.0,86,0.00,CLR,,0.00,WeatherDisplay:10.37,2013-09-27 07:20:00,
2013-09-27 02:21:00,51.8,47.7,28.88,South,180,0.0,0.0,86,0.00,CLR,,0.00,WeatherDisplay:10.37,2013-09-27 07:21:00,
2013-09-27 02:23:00,51.8,47.7,28.88,South,180,0.0,0.0,86,0.00,CLR,,0.00,WeatherDisplay:10.37,2013-09-27 07:23:00,
2013-09-27 02:25:00,51.8,47.7,28.88,ESE,112,3.1,0.0,86,0.00,CLR,,0.00,WeatherDisplay:10.37,2013-09-27 07:25:00,
2013-09-27 02:26:00,52.0,48.2,28.88,ESE,112,3.5,3.5,87,0.00,CLR,,0.00,WeatherDisplay:10.37,2013-09-27 07:26:00,
2013-09-27 02:27:00,52.0,48.5,28.88,ESE,112,3.5,3.5,88,0.00,CLR,,0.00,WeatherDisplay:10.37,2013-09-27 07:27:00,
2013-09-27 02:28:00,52.2,48.7,28.88,ESE,112,3.5,3.5,88,0.00,CLR,,0.00,WeatherDisplay:10.37,2013-09-27 07:28:00,
2013-09-27 02:30:00,52.0,48.5,28.88,SE,135,2.6,2.6,88,0.00,CLR,,0.00,WeatherDisplay:10.37,2013-09-27 07:30:00,
2013-09-27 02:31:00,52.2,48.7,28.88,SE,135,2.3,2.3,88,0.00,CLR,,0.00,WeatherDisplay:10.37,2013-09-27 07:31:00,
2013-09-27 02:32:00,52.2,49.0,28.88,ESE,112,2.3,2.3,89,0.00,CLR,,0.00,WeatherDisplay:10.37,2013-09-27 07:32:00,
2013-09-27 02:33:00,52.3,49.2,28.88,SE,135,2.3,2.3,89,0.00,CLR,,0.00,WeatherDisplay:10.37,2013-09-27 07:33:00,
2013-09-27 02:35:00,52.3,49.2,28.88,ESE,112,1.2,0.0,89,0.00,CLR,,0.00,WeatherDisplay:10.37,2013-09-27 07:35:00,
2013-09-27 02:36:00,52.3,49.2,28.88,ESE,112,1.2,0.0,89,0.00,CLR,,0.00,WeatherDisplay:10.37,2013-09-27 07:36:00,
2013-09-27 02:37:00,52.3,48.9,28.88,ESE,112,0.0,0.0,88,0.00,CLR,,0.00,WeatherDisplay:10.37,2013-09-27 07:37:00,
2013-09-27 02:38:00,52.2,48.7,28.88,ESE,112,0.0,0.0,88,0.00,CLR,,0.00,WeatherDisplay:10.37,2013-09-27 07:38:00,
2013-09-27 02:40:00,52.2,48.7,28.88,ESE,112,0.0,0.0,88,0.00,CLR,,0.00,WeatherDisplay:10.37,2013-09-27 07:40:00,
2013-09-27 02:41:00,52.0,48.5,28.88,ESE,112,0.0,0.0,88,0.00,CLR,,0.00,WeatherDisplay:10.37,2013-09-27 07:41:00,
2013-09-27 02:42:00,52.0,48.5,28.88,West,270,0.0,0.0,88,0.00,CLR,,0.00,WeatherDisplay:10.37,2013-09-27 07:42:00,
2013-09-27 02:43:00,52.0,48.5,28.88,West,270,0.0,0.0,88,0.00,CLR,,0.00,WeatherDisplay:10.37,2013-09-27 07:43:00,
2013-09-27 02:44:00,52.0,48.5,28.88,West,270,1.6,0.0,88,0.00,CLR,,0.00,WeatherDisplay:10.37,2013-09-27 07:44:00,
2013-09-27 02:45:00,52.0,48.5,28.88,West,270,1.2,1.4,88,0.00,CLR,,0.00,WeatherDisplay:10.37,2013-09-27 07:45:00,
2013-09-27 02:46:00,52.0,48.5,28.88,West,270,1.6,1.6,88,0.00,CLR,,0.00,WeatherDisplay:10.37,2013-09-27 07:46:00,
2013-09-27 02:48:00,52.0,48.5,28.88,West,270,1.2,1.2,88,0.00,CLR,,0.00,WeatherDisplay:10.37,2013-09-27 07:48:00,
2013-09-27 02:49:00,51.8,48.4,28.88,West,270,0.0,0.0,88,0.00,CLR,,0.00,WeatherDisplay:10.37,2013-09-27 07:49:00,
2013-09-27 02:50:00,51.8,48.4,28.88,West,270,0.0,0.0,88,0.00,CLR,,0.00,WeatherDisplay:10.37,2013-09-27 07:50:00,
2013-09-27 02:53:00,51.8,48.4,28.88,West,270,0.0,0.0,88,0.00,CLR,,0.00,WeatherDisplay:10.37,2013-09-27 07:53:00,
2013-09-27 02:54:00,51.8,48.7,28.88,West,270,0.0,0.0,89,0.00,CLR,,0.00,WeatherDisplay:10.37,2013-09-27 07:54:00,
2013-09-27 02:55:00,51.6,48.5,28.88,West,270,0.0,0.0,89,0.00,CLR,,0.00,WeatherDisplay:10.37,2013-09-27 07:55:00,
2013-09-27 02:56:00,51.6,48.5,28.88,West,270,0.0,0.0,89,0.00,CLR,,0.00,WeatherDisplay:10.37,2013-09-27 07:56:00,
2013-09-27 02:58:00,51.6,48.5,28.88,West,270,0.0,0.0,89,0.00,CLR,,0.00,WeatherDisplay:10.37,2013-09-27 07:58:00,
2013-09-27 02:59:00,51.6,48.5,28.88,West,270,0.0,0.0,89,0.00,CLR,,0.00,WeatherDisplay:10.37,2013-09-27 07:59:00,
2013-09-27 03:00:00,51.6,48.5,28.88,West,270,0.0,0.0,89,0.00,CLR,,0.00,WeatherDisplay:10.37,2013-09-27 08:00:00,
2013-09-27 03:01:00,51.6,48.5,28.88,West,270,0.0,0.0,89,0.00,CLR,,0.00,WeatherDisplay:10.37,2013-09-27 08:01:00,
2013-09-27 03:03:00,51.6,48.5,28.88,WSW,248,0.0,0.0,89,0.00,CLR,,0.00,WeatherDisplay:10.37,2013-09-27 08:03:00,
2013-09-27 03:04:00,51.6,48.5,28.88,WSW,248,0.0,0.0,89,0.00,CLR,,0.00,WeatherDisplay:10.37,2013-09-27 08:04:00,
2013-09-27 03:05:00,51.8,48.7,28.88,WSW,248,0.0,0.0,89,0.00,CLR,,0.00,WeatherDisplay:10.37,2013-09-27 08:05:00,
2013-09-27 03:06:00,51.8,48.7,28.88,WSW,248,0.0,0.0,89,0.00,CLR,,0.00,WeatherDisplay:10.37,2013-09-27 08:06:00,
2013-09-27 03:08:00,51.6,48.5,28.88,WSW,248,0.0,0.0,89,0.00,CLR,,0.00,WeatherDisplay:10.37,2013-09-27 08:08:00,
2013-09-27 03:09:00,51.6,48.5,28.88,WSW,248,0.0,0.0,89,0.00,CLR,,0.00,WeatherDisplay:10.37,2013-09-27 08:09:00,
2013-09-27 03:10:00,51.6,48.5,28.85,WSW,248,0.0,0.0,89,0.00,CLR,,0.00,WeatherDisplay:10.37,2013-09-27 08:10:00,
2013-09-27 03:11:00,51.6,48.5,28.85,WSW,248,0.0,0.0,89,0.00,CLR,,0.00,WeatherDisplay:10.37,2013-09-27 08:11:00,
2013-09-27 03:13:00,51.6,48.5,28.85,WSW,248,0.0,0.0,89,0.00,CLR,,0.00,WeatherDisplay:10.37,2013-09-27 08:13:00,
2013-09-27 03:14:00,51.4,48.3,28.85,WSW,248,0.0,0.0,89,0.00,CLR,,0.00,WeatherDisplay:10.37,2013-09-27 08:14:00,
2013-09-27 03:16:00,51.4,48.3,28.85,WSW,248,0.0,0.0,89,0.00,CLR,,0.00,WeatherDisplay:10.37,2013-09-27 08:16:00,
2013-09-27 03:18:00,51.3,48.1,28.85,WSW,248,0.0,0.0,89,0.00,CLR,,0.00,WeatherDisplay:10.37,2013-09-27 08:18:00,
2013-09-27 03:19:00,51.3,48.1,28.85,WSW,248,0.0,0.0,89,0.00,CLR,,0.00,WeatherDisplay:10.37,2013-09-27 08:19:00,
2013-09-27 03:21:00,51.3,48.1,28.85,WSW,248,0.0,0.0,89,0.00,CLR,,0.00,WeatherDisplay:10.37,2013-09-27 08:21:00,
2013-09-27 03:22:00,51.3,48.1,28.85,WSW,248,0.0,0.0,89,0.00,CLR,,0.00,WeatherDisplay:10.37,2013-09-27 08:22:00,
2013-09-27 03:24:00,51.3,48.1,28.85,WSW,248,0.0,0.0,89,0.00,CLR,,0.00,WeatherDisplay:10.37,2013-09-27 08:24:00,
2013-09-27 03:26:00,51.1,48.2,28.88,WSW,248,0.0,0.0,90,0.00,CLR,,0.00,WeatherDisplay:10.37,2013-09-27 08:26:00,
2013-09-27 03:27:00,51.1,48.2,28.88,WSW,248,0.0,0.0,90,0.00,CLR,,0.00,WeatherDisplay:10.37,2013-09-27 08:27:00,
2013-09-27 03:29:00,51.1,48.2,28.88,WSW,248,0.0,0.0,90,0.00,CLR,,0.00,WeatherDisplay:10.37,2013-09-27 08:29:00,
2013-09-27 03:31:00,50.9,48.1,28.88,WSW,248,0.0,0.0,90,0.00,CLR,,0.00,WeatherDisplay:10.37,2013-09-27 08:31:00,
2013-09-27 03:32:00,50.9,48.1,28.88,WSW,248,0.0,0.0,90,0.00,CLR,,0.00,WeatherDisplay:10.37,2013-09-27 08:32:00,
2013-09-27 03:33:00,50.9,48.1,28.88,WSW,248,0.0,0.0,90,0.00,CLR,,0.00,WeatherDisplay:10.37,2013-09-27 08:33:00,
2013-09-27 03:34:00,50.7,47.6,28.88,WSW,248,0.0,0.0,89,0.00,CLR,,0.00,WeatherDisplay:10.37,2013-09-27 08:34:00,
2013-09-27 03:35:00,50.9,47.8,28.88,WSW,248,0.0,0.0,89,0.00,CLR,,0.00,WeatherDisplay:10.37,2013-09-27 08:35:00,
2013-09-27 03:36:00,50.9,48.1,28.88,WSW,248,0.0,0.0,90,0.00,CLR,,0.00,WeatherDisplay:10.37,2013-09-27 08:36:00,
2013-09-27 03:37:00,50.9,48.1,28.88,WSW,248,0.0,0.0,90,0.00,CLR,,0.00,WeatherDisplay:10.37,2013-09-27 08:37:00,
2013-09-27 03:38:00,50.7,47.9,28.88,WSW,248,0.0,0.0,90,0.00,CLR,,0.00,WeatherDisplay:10.37,2013-09-27 08:38:00,
2013-09-27 03:39:00,50.7,47.9,28.88,WSW,248,0.0,0.0,90,0.00,CLR,,0.00,WeatherDisplay:10.37,2013-09-27 08:39:00,
2013-09-27 03:40:00,50.5,47.7,28.88,WSW,248,0.0,0.0,90,0.00,CLR,,0.00,WeatherDisplay:10.37,2013-09-27 08:40:00,
2013-09-27 03:41:00,50.5,47.7,28.88,WSW,248,0.0,0.0,90,0.00,CLR,,0.00,WeatherDisplay:10.37,2013-09-27 08:41:00,
2013-09-27 03:42:00,50.5,47.7,28.88,WSW,248,0.0,0.0,90,0.00,CLR,,0.00,WeatherDisplay:10.37,2013-09-27 08:42:00,
2013-09-27 03:43:00,50.5,47.7,28.88,WSW,248,0.0,0.0,90,0.00,CLR,,0.00,WeatherDisplay:10.37,2013-09-27 08:43:00,
2013-09-27 03:44:00,50.4,47.5,28.88,WSW,248,0.0,0.0,90,0.00,CLR,,0.00,WeatherDisplay:10.37,2013-09-27 08:44:00,
2013-09-27 03:45:00,50.4,47.5,28.88,WSW,248,0.0,0.0,90,0.00,CLR,,0.00,WeatherDisplay:10.37,2013-09-27 08:45:00,
2013-09-27 03:46:00,50.4,47.5,28.88,WSW,248,1.4,0.0,90,0.00,CLR,,0.00,WeatherDisplay:10.37,2013-09-27 08:46:00,
2013-09-27 03:47:00,50.4,47.5,28.88,WSW,248,1.4,1.4,90,0.00,CLR,,0.00,WeatherDisplay:10.37,2013-09-27 08:47:00,
2013-09-27 03:48:00,50.4,47.5,28.88,WSW,248,1.2,0.0,90,0.00,CLR,,0.00,WeatherDisplay:10.37,2013-09-27 08:48:00,
2013-09-27 03:49:00,50.2,47.4,28.88,SW,225,0.0,0.0,90,0.00,CLR,,0.00,WeatherDisplay:10.37,2013-09-27 08:49:00,
2013-09-27 03:50:00,50.4,47.8,28.88,SW,225,0.0,0.0,91,0.00,CLR,,0.00,WeatherDisplay:10.37,2013-09-27 08:50:00,
2013-09-27 03:52:00,50.2,47.7,28.88,SW,225,0.0,0.0,91,0.00,CLR,,0.00,WeatherDisplay:10.37,2013-09-27 08:52:00,
2013-09-27 03:53:00,50.2,47.7,28.88,SW,225,0.0,0.0,91,0.00,CLR,,0.00,WeatherDisplay:10.37,2013-09-27 08:53:00,
2013-09-27 03:55:00,50.2,47.7,28.88,SW,225,0.0,0.0,91,0.00,CLR,,0.00,WeatherDisplay:10.37,2013-09-27 08:55:00,
2013-09-27 03:57:00,50.2,47.7,28.88,SW,225,0.0,0.0,91,0.00,CLR,,0.00,WeatherDisplay:10.37,2013-09-27 08:57:00,
2013-09-27 03:58:00,50.2,47.7,28.88,SW,225,0.0,0.0,91,0.00,CLR,,0.00,WeatherDisplay:10.37,2013-09-27 08:58:00,
2013-09-27 04:00:00,50.2,47.7,28.88,SW,225,0.0,0.0,91,0.00,CLR,,0.00,WeatherDisplay:10.37,2013-09-27 09:00:00,
2013-09-27 04:02:00,50.0,47.5,28.88,West,270,2.3,2.3,91,0.00,CLR,,0.00,WeatherDisplay:10.37,2013-09-27 09:02:00,
2013-09-27 04:03:00,50.0,47.5,28.88,West,270,2.3,0.0,91,0.00,CLR,,0.00,WeatherDisplay:10.37,2013-09-27 09:03:00,
2013-09-27 04:04:00,50.0,47.5,28.88,West,270,2.3,0.0,91,0.00,CLR,,0.00,WeatherDisplay:10.37,2013-09-27 09:04:00,
2013-09-27 04:05:00,50.0,47.5,28.88,West,270,0.0,0.0,91,0.00,CLR,,0.00,WeatherDisplay:10.37,2013-09-27 09:05:00,
2013-09-27 04:07:00,49.8,47.3,28.88,West,270,0.0,0.0,91,0.00,CLR,,0.00,WeatherDisplay:10.37,2013-09-27 09:07:00,
2013-09-27 04:08:00,49.8,47.6,28.88,West,270,0.0,0.0,92,0.00,CLR,,0.00,WeatherDisplay:10.37,2013-09-27 09:08:00,
2013-09-27 04:09:00,49.8,47.6,28.88,West,270,0.0,0.0,92,0.00,CLR,,0.00,WeatherDisplay:10.37,2013-09-27 09:09:00,
2013-09-27 04:10:00,49.6,47.4,28.88,West,270,0.0,0.0,92,0.00,CLR,,0.00,WeatherDisplay:10.37,2013-09-27 09:10:00,
2013-09-27 04:11:00,49.6,47.4,28.88,West,270,0.0,0.0,92,0.00,CLR,,0.00,WeatherDisplay:10.37,2013-09-27 09:11:00,
2013-09-27 04:12:00,49.6,47.4,28.88,West,270,0.0,0.0,92,0.00,CLR,,0.00,WeatherDisplay:10.37,2013-09-27 09:12:00,
2013-09-27 04:14:00,49.6,47.4,28.88,West,270,0.0,0.0,92,0.00,CLR,,0.00,WeatherDisplay:10.37,2013-09-27 09:14:00,
2013-09-27 04:15:00,49.5,47.2,28.88,West,270,0.0,0.0,92,0.00,CLR,,0.00,WeatherDisplay:10.37,2013-09-27 09:15:00,
2013-09-27 04:16:00,49.5,47.2,28.88,West,270,0.0,0.0,92,0.00,CLR,,0.00,WeatherDisplay:10.37,2013-09-27 09:16:00,
2013-09-27 04:17:00,49.5,47.2,28.88,West,270,0.0,0.0,92,0.00,CLR,,0.00,WeatherDisplay:10.37,2013-09-27 09:17:00,
2013-09-27 04:19:00,49.3,47.1,28.88,West,270,0.0,0.0,92,0.00,CLR,,0.00,WeatherDisplay:10.37,2013-09-27 09:19:00,
2013-09-27 04:20:00,49.3,47.1,28.88,West,270,0.0,0.0,92,0.00,CLR,,0.00,WeatherDisplay:10.37,2013-09-27 09:20:00,
2013-09-27 04:21:00,49.3,47.1,28.88,West,270,0.0,0.0,92,0.00,CLR,,0.00,WeatherDisplay:10.37,2013-09-27 09:21:00,
2013-09-27 04:22:00,49.3,47.1,28.88,West,270,0.0,0.0,92,0.00,CLR,,0.00,WeatherDisplay:10.37,2013-09-27 09:22:00,
2013-09-27 04:24:00,49.3,47.1,28.88,West,270,0.0,0.0,92,0.00,CLR,,0.00,WeatherDisplay:10.37,2013-09-27 09:24:00,
2013-09-27 04:25:00,49.3,47.1,28.88,West,270,0.0,0.0,92,0.00,CLR,,0.00,WeatherDisplay:10.37,2013-09-27 09:25:00,
2013-09-27 04:26:00,49.1,46.9,28.88,West,270,0.0,0.0,92,0.00,CLR,,0.00,WeatherDisplay:10.37,2013-09-27 09:26:00,
2013-09-27 04:28:00,49.1,46.9,28.88,West,270,0.0,0.0,92,0.00,CLR,,0.00,WeatherDisplay:10.37,2013-09-27 09:28:00,
2013-09-27 04:29:00,49.1,46.9,28.88,West,270,0.0,0.0,92,0.00,CLR,,0.00,WeatherDisplay:10.37,2013-09-27 09:29:00,
2013-09-27 04:30:00,49.1,46.9,28.88,West,270,0.0,0.0,92,0.00,CLR,,0.00,WeatherDisplay:10.37,2013-09-27 09:30:00,
2013-09-27 04:31:00,49.1,47.2,28.88,West,270,0.0,0.0,93,0.00,CLR,,0.00,WeatherDisplay:10.37,2013-09-27 09:31:00,
2013-09-27 04:33:00,49.1,47.2,28.88,West,270,0.0,0.0,93,0.00,CLR,,0.00,WeatherDisplay:10.37,2013-09-27 09:33:00,
2013-09-27 04:34:00,49.1,47.2,28.88,West,270,0.0,0.0,93,0.00,CLR,,0.00,WeatherDisplay:10.37,2013-09-27 09:34:00,
2013-09-27 04:35:00,49.1,47.2,28.88,West,270,0.0,0.0,93,0.00,CLR,,0.00,WeatherDisplay:10.37,2013-09-27 09:35:00,
2013-09-27 04:36:00,49.1,47.2,28.88,West,270,0.0,0.0,93,0.00,CLR,,0.00,WeatherDisplay:10.37,2013-09-27 09:36:00,
2013-09-27 04:38:00,49.1,47.2,28.88,West,270,0.0,0.0,93,0.00,CLR,,0.00,WeatherDisplay:10.37,2013-09-27 09:38:00,
2013-09-27 04:39:00,48.9,47.0,28.88,West,270,0.0,0.0,93,0.00,CLR,,0.00,WeatherDisplay:10.37,2013-09-27 09:39:00,
2013-09-27 04:41:00,48.9,47.0,28.88,West,270,0.0,0.0,93,0.00,CLR,,0.00,WeatherDisplay:10.37,2013-09-27 09:41:00,
2013-09-27 04:43:00,48.7,46.8,28.88,West,270,0.0,0.0,93,0.00,CLR,,0.00,WeatherDisplay:10.37,2013-09-27 09:43:00,
2013-09-27 04:44:00,48.7,46.8,28.88,West,270,0.0,0.0,93,0.00,CLR,,0.00,WeatherDisplay:10.37,2013-09-27 09:44:00,
2013-09-27 04:46:00,48.7,46.8,28.88,West,270,0.0,0.0,93,0.00,CLR,,0.00,WeatherDisplay:10.37,2013-09-27 09:46:00,
2013-09-27 04:48:00,48.6,46.6,28.88,West,270,0.0,0.0,93,0.00,CLR,,0.00,WeatherDisplay:10.37,2013-09-27 09:48:00,
2013-09-27 04:50:00,48.6,46.6,28.88,West,270,0.0,0.0,93,0.00,CLR,,0.00,WeatherDisplay:10.37,2013-09-27 09:50:00,
2013-09-27 04:51:00,48.6,46.6,28.88,West,270,1.6,0.0,93,0.00,CLR,,0.00,WeatherDisplay:10.37,2013-09-27 09:51:00,
2013-09-27 04:52:00,48.6,46.6,28.88,West,270,1.6,0.0,93,0.00,CLR,,0.00,WeatherDisplay:10.37,2013-09-27 09:52:00,
2013-09-27 04:53:00,48.4,46.4,28.88,West,270,2.0,0.0,93,0.00,CLR,,0.00,WeatherDisplay:10.37,2013-09-27 09:53:00,
2013-09-27 04:55:00,48.4,46.4,28.88,WNW,292,2.3,2.3,93,0.00,CLR,,0.00,WeatherDisplay:10.37,2013-09-27 09:55:00,
2013-09-27 04:56:00,48.4,46.4,28.88,WNW,292,2.3,0.0,93,0.00,CLR,,0.00,WeatherDisplay:10.37,2013-09-27 09:56:00,
2013-09-27 04:57:00,48.4,46.4,28.88,WNW,292,2.3,0.0,93,0.00,CLR,,0.00,WeatherDisplay:10.37,2013-09-27 09:57:00,
2013-09-27 04:58:00,48.4,46.4,28.88,WNW,292,0.0,0.0,93,0.00,CLR,,0.00,WeatherDisplay:10.37,2013-09-27 09:58:00,
2013-09-27 05:00:00,48.4,46.4,28.88,WNW,292,0.0,0.0,93,0.00,CLR,,0.00,WeatherDisplay:10.37,2013-09-27 10:00:00,
2013-09-27 05:01:00,48.4,46.4,28.88,WNW,292,0.0,0.0,93,0.00,CLR,,0.00,WeatherDisplay:10.37,2013-09-27 10:01:00,
2013-09-27 05:02:00,48.4,46.4,28.88,WNW,292,0.0,0.0,93,0.00,CLR,,0.00,WeatherDisplay:10.37,2013-09-27 10:02:00,
2013-09-27 05:03:00,48.4,46.4,28.88,WNW,292,0.0,0.0,93,0.00,CLR,,0.00,WeatherDisplay:10.37,2013-09-27 10:03:00,
2013-09-27 05:06:00,48.4,46.7,28.88,WNW,292,0.0,0.0,94,0.00,CLR,,0.00,WeatherDisplay:10.37,2013-09-27 10:06:00,
2013-09-27 05:07:00,48.4,46.7,28.88,WNW,292,0.0,0.0,94,0.00,CLR,,0.00,WeatherDisplay:10.37,2013-09-27 10:07:00,
2013-09-27 05:09:00,48.4,46.7,28.88,WNW,292,0.0,0.0,94,0.00,CLR,,0.00,WeatherDisplay:10.37,2013-09-27 10:09:00,
2013-09-27 05:11:00,48.6,46.9,28.88,WNW,292,0.0,0.0,94,0.00,CLR,,0.00,WeatherDisplay:10.37,2013-09-27 10:11:00,
2013-09-27 05:12:00,48.6,46.9,28.88,WNW,292,0.0,0.0,94,0.00,CLR,,0.00,WeatherDisplay:10.37,2013-09-27 10:12:00,
2013-09-27 05:14:00,48.7,47.1,28.88,WNW,292,0.0,0.0,94,0.00,CLR,,0.00,WeatherDisplay:10.37,2013-09-27 10:14:00,
2013-09-27 05:17:00,48.7,47.1,28.88,WNW,292,0.0,0.0,94,0.00,CLR,,0.00,WeatherDisplay:10.37,2013-09-27 10:17:00,
2013-09-27 05:18:00,48.7,47.1,28.88,WNW,292,0.0,0.0,94,0.00,CLR,,0.00,WeatherDisplay:10.37,2013-09-27 10:18:00,
2013-09-27 05:19:00,48.7,47.1,28.88,WNW,292,0.0,0.0,94,0.00,CLR,,0.00,WeatherDisplay:10.37,2013-09-27 10:19:00,
2013-09-27 05:22:00,48.7,47.1,28.88,WNW,292,0.0,0.0,94,0.00,CLR,,0.00,WeatherDisplay:10.37,2013-09-27 10:22:00,
2013-09-27 05:23:00,48.7,47.4,28.88,WNW,292,0.0,0.0,95,0.00,CLR,,0.00,WeatherDisplay:10.37,2013-09-27 10:23:00,
2013-09-27 05:24:00,48.9,47.6,28.88,WNW,292,0.0,0.0,95,0.00,CLR,,0.00,WeatherDisplay:10.37,2013-09-27 10:24:00,
2013-09-27 05:27:00,48.7,47.4,28.88,WNW,292,0.0,0.0,95,0.00,CLR,,0.00,WeatherDisplay:10.37,2013-09-27 10:27:00,
2013-09-27 05:28:00,48.7,47.4,28.88,WNW,292,0.0,0.0,95,0.00,CLR,,0.00,WeatherDisplay:10.37,2013-09-27 10:28:00,
2013-09-27 05:30:00,48.7,47.4,28.88,WNW,292,0.0,0.0,95,0.00,CLR,,0.00,WeatherDisplay:10.37,2013-09-27 10:30:00,
2013-09-27 05:32:00,48.6,47.2,28.88,WNW,292,0.0,0.0,95,0.00,CLR,,0.00,WeatherDisplay:10.37,2013-09-27 10:32:00,
2013-09-27 05:33:00,48.7,47.4,28.88,East,90,0.0,0.0,95,0.00,CLR,,0.00,WeatherDisplay:10.37,2013-09-27 10:33:00,
2013-09-27 05:35:00,48.9,47.6,28.88,East,90,0.0,0.0,95,0.00,CLR,,0.00,WeatherDisplay:10.37,2013-09-27 10:35:00,
2013-09-27 05:37:00,48.7,47.4,28.88,East,90,0.0,0.0,95,0.00,CLR,,0.00,WeatherDisplay:10.37,2013-09-27 10:37:00,
2013-09-27 05:38:00,48.7,47.4,28.88,East,90,0.0,0.0,95,0.00,CLR,,0.00,WeatherDisplay:10.37,2013-09-27 10:38:00,
2013-09-27 05:39:00,48.9,47.6,28.88,East,90,0.0,0.0,95,0.00,CLR,,0.00,WeatherDisplay:10.37,2013-09-27 10:39:00,
2013-09-27 05:40:00,49.3,47.9,28.88,East,90,0.0,0.0,95,0.00,CLR,,0.00,WeatherDisplay:10.37,2013-09-27 10:40:00,
2013-09-27 05:42:00,49.1,47.7,28.88,East,90,0.0,0.0,95,0.00,CLR,,0.00,WeatherDisplay:10.37,2013-09-27 10:42:00,
2013-09-27 05:43:00,49.1,47.7,28.88,East,90,0.0,0.0,95,0.00,CLR,,0.00,WeatherDisplay:10.37,2013-09-27 10:43:00,
2013-09-27 05:44:00,48.9,47.6,28.88,East,90,0.0,0.0,95,0.00,CLR,,0.00,WeatherDisplay:10.37,2013-09-27 10:44:00,
2013-09-27 05:46:00,48.9,47.6,28.88,East,90,0.0,0.0,95,0.00,CLR,,0.00,WeatherDisplay:10.37,2013-09-27 10:46:00,
2013-09-27 05:47:00,48.9,47.6,28.88,East,90,0.0,0.0,95,0.00,CLR,,0.00,WeatherDisplay:10.37,2013-09-27 10:47:00,
2013-09-27 05:48:00,48.9,47.6,28.88,East,90,0.0,0.0,95,0.00,CLR,,0.00,WeatherDisplay:10.37,2013-09-27 10:48:00,
2013-09-27 05:49:00,48.9,47.6,28.88,East,90,0.0,0.0,95,0.00,CLR,,0.00,WeatherDisplay:10.37,2013-09-27 10:49:00,
2013-09-27 05:51:00,48.7,47.4,28.88,East,90,0.0,0.0,95,0.00,CLR,,0.00,WeatherDisplay:10.37,2013-09-27 10:51:00,
2013-09-27 05:53:00,48.7,47.4,28.88,SW,225,0.0,0.0,95,0.00,CLR,,0.00,WeatherDisplay:10.37,2013-09-27 10:53:00,
2013-09-27 05:54:00,48.7,47.4,28.88,SW,225,0.0,0.0,95,0.00,CLR,,0.00,WeatherDisplay:10.37,2013-09-27 10:54:00,
2013-09-27 05:56:00,48.7,47.4,28.88,SW,225,0.0,0.0,95,0.00,CLR,,0.00,WeatherDisplay:10.37,2013-09-27 10:56:00,
2013-09-27 05:58:00,48.7,47.4,28.88,SW,225,0.0,0.0,95,0.00,CLR,,0.00,WeatherDisplay:10.37,2013-09-27 10:58:00,
2013-09-27 05:59:00,48.7,47.4,28.88,SW,225,0.0,0.0,95,0.00,CLR,,0.00,WeatherDisplay:10.37,2013-09-27 10:59:00,
2013-09-27 06:01:00,48.7,47.4,28.88,SW,225,0.0,0.0,95,0.00,CLR,,0.00,WeatherDisplay:10.37,2013-09-27 11:01:00,
2013-09-27 06:03:00,48.7,47.4,28.88,SW,225,0.0,0.0,95,0.00,CLR,,0.00,WeatherDisplay:10.37,2013-09-27 11:03:00,
2013-09-27 06:04:00,48.7,47.4,28.88,SW,225,0.0,0.0,95,0.00,CLR,,0.00,WeatherDisplay:10.37,2013-09-27 11:04:00,
2013-09-27 06:05:00,48.7,47.4,28.88,SW,225,0.0,0.0,95,0.00,CLR,,0.00,WeatherDisplay:10.37,2013-09-27 11:05:00,
2013-09-27 06:07:00,48.6,47.2,28.88,SW,225,0.0,0.0,95,0.00,CLR,,0.00,WeatherDisplay:10.37,2013-09-27 11:07:00,
2013-09-27 06:08:00,48.6,47.2,28.88,SW,225,0.0,0.0,95,0.00,CLR,,0.00,WeatherDisplay:10.37,2013-09-27 11:08:00,
2013-09-27 06:09:00,48.4,47.0,28.88,SW,225,0.0,0.0,95,0.00,CLR,,0.00,WeatherDisplay:10.37,2013-09-27 11:09:00,
2013-09-27 06:10:00,48.4,47.0,28.88,SW,225,0.0,0.0,95,0.00,CLR,,0.00,WeatherDisplay:10.37,2013-09-27 11:10:00,
2013-09-27 06:12:00,48.4,47.0,28.88,SW,225,0.0,0.0,95,0.00,CLR,,0.00,WeatherDisplay:10.37,2013-09-27 11:12:00,
2013-09-27 06:13:00,48.4,47.0,28.88,SW,225,0.0,0.0,95,0.00,CLR,,0.00,WeatherDisplay:10.37,2013-09-27 11:13:00,
2013-09-27 06:15:00,48.4,47.0,28.88,SW,225,0.0,0.0,95,0.00,CLR,,0.00,WeatherDisplay:10.37,2013-09-27 11:15:00,
2013-09-27 06:17:00,48.2,46.8,28.88,SW,225,0.0,0.0,95,0.00,CLR,,0.00,WeatherDisplay:10.37,2013-09-27 11:17:00,
2013-09-27 06:18:00,48.2,46.8,28.88,SW,225,0.0,0.0,95,0.00,CLR,,0.00,WeatherDisplay:10.37,2013-09-27 11:18:00,
2013-09-27 06:19:00,48.2,46.8,28.88,SW,225,0.0,0.0,95,0.00,CLR,,0.00,WeatherDisplay:10.37,2013-09-27 11:19:00,
2013-09-27 06:20:00,48.2,46.8,28.88,SW,225,0.0,0.0,95,0.00,CLR,,0.00,WeatherDisplay:10.37,2013-09-27 11:20:00,
2013-09-27 06:22:00,48.2,46.8,28.88,SW,225,0.0,0.0,95,0.00,CLR,,0.00,WeatherDisplay:10.37,2013-09-27 11:22:00,
2013-09-27 06:23:00,48.0,46.7,28.88,SW,225,0.0,0.0,95,0.00,CLR,,0.00,WeatherDisplay:10.37,2013-09-27 11:23:00,
2013-09-27 06:24:00,48.0,46.7,28.88,SW,225,0.0,0.0,95,0.00,CLR,,0.00,WeatherDisplay:10.37,2013-09-27 11:24:00,
2013-09-27 06:25:00,48.0,46.7,28.88,SW,225,0.0,0.0,95,0.00,CLR,,0.00,WeatherDisplay:10.37,2013-09-27 11:25:00,
2013-09-27 06:26:00,48.0,46.7,28.88,SW,225,0.0,0.0,95,0.00,CLR,,0.00,WeatherDisplay:10.37,2013-09-27 11:26:00,
2013-09-27 06:28:00,47.8,46.5,28.88,SW,225,0.0,0.0,95,0.00,CLR,,0.00,WeatherDisplay:10.37,2013-09-27 11:28:00,
2013-09-27 06:30:00,48.0,46.7,28.88,SW,225,0.0,0.0,95,0.00,CLR,,0.00,WeatherDisplay:10.37,2013-09-27 11:30:00,
2013-09-27 06:31:00,48.0,46.7,28.88,SW,225,0.0,0.0,95,0.00,CLR,,0.00,WeatherDisplay:10.37,2013-09-27 11:31:00,
2013-09-27 06:32:00,48.0,46.7,28.88,SW,225,0.0,0.0,95,0.00,CLR,,0.00,WeatherDisplay:10.37,2013-09-27 11:32:00,
2013-09-27 06:33:00,48.2,46.8,28.88,SW,225,0.0,0.0,95,0.00,CLR,,0.00,WeatherDisplay:10.37,2013-09-27 11:33:00,
2013-09-27 06:35:00,48.2,46.8,28.88,SW,225,0.0,0.0,95,0.00,CLR,,0.00,WeatherDisplay:10.37,2013-09-27 11:35:00,
2013-09-27 06:36:00,48.0,46.9,28.88,SW,225,0.0,0.0,96,0.00,CLR,,0.00,WeatherDisplay:10.37,2013-09-27 11:36:00,
2013-09-27 06:37:00,48.0,46.9,28.88,SW,225,0.0,0.0,96,0.00,CLR,,0.00,WeatherDisplay:10.37,2013-09-27 11:37:00,
2013-09-27 06:38:00,48.0,46.9,28.88,SW,225,0.0,0.0,96,0.00,CLR,,0.00,WeatherDisplay:10.37,2013-09-27 11:38:00,
2013-09-27 06:40:00,48.0,46.9,28.91,SW,225,0.0,0.0,96,0.00,CLR,,0.00,WeatherDisplay:10.37,2013-09-27 11:40:00,
2013-09-27 06:41:00,48.0,46.9,28.91,SW,225,0.0,0.0,96,0.00,CLR,,0.00,WeatherDisplay:10.37,2013-09-27 11:41:00,
2013-09-27 06:42:00,48.0,46.9,28.91,SW,225,0.0,0.0,96,0.00,CLR,,0.00,WeatherDisplay:10.37,2013-09-27 11:42:00,
2013-09-27 06:44:00,48.0,46.9,28.91,SW,225,0.0,0.0,96,0.00,CLR,,0.00,WeatherDisplay:10.37,2013-09-27 11:44:00,
2013-09-27 06:45:00,48.0,46.9,28.91,SW,225,0.0,0.0,96,0.00,CLR,,0.00,WeatherDisplay:10.37,2013-09-27 11:45:00,
2013-09-27 06:46:00,47.8,46.8,28.91,SW,225,0.0,0.0,96,0.00,CLR,,0.00,WeatherDisplay:10.37,2013-09-27 11:46:00,
2013-09-27 06:47:00,47.8,46.8,28.91,SW,225,0.0,0.0,96,0.00,CLR,,0.00,WeatherDisplay:10.37,2013-09-27 11:47:00,
2013-09-27 06:49:00,47.8,46.8,28.91,WSW,248,0.0,0.0,96,0.00,CLR,,0.00,WeatherDisplay:10.37,2013-09-27 11:49:00,
2013-09-27 06:50:00,47.8,46.8,28.91,SW,231,0.0,0.0,96,0.00,CLR,,0.00,WeatherDisplay:10.37,2013-09-27 11:50:00,
2013-09-27 06:51:00,47.8,46.8,28.91,West,270,0.0,0.0,96,0.00,CLR,,0.00,WeatherDisplay:10.37,2013-09-27 11:51:00,
2013-09-27 06:52:00,48.0,46.9,28.91,West,270,0.0,0.0,96,0.00,CLR,,0.00,WeatherDisplay:10.37,2013-09-27 11:52:00,
2013-09-27 06:54:00,47.8,46.8,28.91,West,270,0.0,0.0,96,0.00,CLR,,0.00,WeatherDisplay:10.37,2013-09-27 11:54:00,
2013-09-27 06:55:00,47.8,46.8,28.91,WSW,255,0.0,0.0,96,0.00,CLR,,0.00,WeatherDisplay:10.37,2013-09-27 11:55:00,
2013-09-27 06:56:00,47.7,46.6,28.91,West,270,0.0,0.0,96,0.00,CLR,,0.00,WeatherDisplay:10.37,2013-09-27 11:56:00,
2013-09-27 06:58:00,47.7,46.6,28.91,West,270,0.0,0.0,96,0.00,CLR,,0.00,WeatherDisplay:10.37,2013-09-27 11:58:00,
2013-09-27 06:59:00,47.7,46.6,28.91,West,270,0.0,0.0,96,0.00,CLR,,0.00,WeatherDisplay:10.37,2013-09-27 11:59:00,
2013-09-27 07:00:00,47.7,46.6,28.91,West,270,0.0,0.0,96,0.00,CLR,,0.00,WeatherDisplay:10.37,2013-09-27 12:00:00,
2013-09-27 07:01:00,47.7,46.6,28.91,West,270,0.0,0.0,96,0.00,CLR,,0.00,WeatherDisplay:10.37,2013-09-27 12:01:00,
2013-09-27 07:02:00,47.7,46.6,28.91,West,270,0.0,0.0,96,0.00,CLR,,0.00,WeatherDisplay:10.37,2013-09-27 12:02:00,
2013-09-27 07:03:00,47.7,46.6,28.91,West,270,0.0,0.0,96,0.00,CLR,,0.00,WeatherDisplay:10.37,2013-09-27 12:03:00,
2013-09-27 07:04:00,47.7,46.6,28.91,West,270,0.0,0.0,96,0.00,CLR,,0.00,WeatherDisplay:10.37,2013-09-27 12:04:00,
2013-09-27 07:05:00,47.7,46.6,28.91,West,270,0.0,0.0,96,0.00,CLR,,0.00,WeatherDisplay:10.37,2013-09-27 12:05:00,
2013-09-27 07:07:00,47.7,46.6,28.91,West,270,0.0,0.0,96,0.00,CLR,,0.00,WeatherDisplay:10.37,2013-09-27 12:07:00,
2013-09-27 07:08:00,47.7,46.6,28.91,SSE,158,0.0,0.0,96,0.00,CLR,,0.00,WeatherDisplay:10.37,2013-09-27 12:08:00,
2013-09-27 07:10:00,48.0,46.9,28.91,SSE,158,0.0,0.0,96,0.00,CLR,,0.00,WeatherDisplay:10.37,2013-09-27 12:10:00,
2013-09-27 07:12:00,48.2,47.1,28.91,SSE,158,0.0,0.0,96,0.00,CLR,,0.00,WeatherDisplay:10.37,2013-09-27 12:12:00,
2013-09-27 07:14:00,48.4,47.6,28.91,SSE,158,0.0,0.0,97,0.00,CLR,,0.00,WeatherDisplay:10.37,2013-09-27 12:14:00,
2013-09-27 07:15:00,48.7,47.9,28.91,SSE,158,0.0,0.0,97,0.00,CLR,,0.00,WeatherDisplay:10.37,2013-09-27 12:15:00,
2013-09-27 07:17:00,49.3,48.7,28.91,SSE,158,0.0,0.0,98,0.00,CLR,,0.00,WeatherDisplay:10.37,2013-09-27 12:17:00,
2013-09-27 07:19:00,49.6,49.1,28.91,SSE,158,0.0,0.0,98,0.00,CLR,,0.00,WeatherDisplay:10.37,2013-09-27 12:19:00,
2013-09-27 07:20:00,49.8,49.3,28.91,SSE,158,0.0,0.0,98,0.00,CLR,,0.00,WeatherDisplay:10.37,2013-09-27 12:20:00,
2013-09-27 07:22:00,50.0,49.5,28.91,SSE,158,0.0,0.0,98,0.00,CLR,,0.00,WeatherDisplay:10.37,2013-09-27 12:22:00,
2013-09-27 07:23:00,50.4,49.8,28.91,SSE,158,0.0,0.0,98,0.00,CLR,,0.00,WeatherDisplay:10.37,2013-09-27 12:23:00,
2013-09-27 07:25:00,50.9,50.4,28.88,SSE,158,0.0,0.0,98,0.00,CLR,,0.00,WeatherDisplay:10.37,2013-09-27 12:25:00,
2013-09-27 07:27:00,51.3,50.7,28.88,SSE,158,0.0,0.0,98,0.00,CLR,,0.00,WeatherDisplay:10.37,2013-09-27 12:27:00,
2013-09-27 07:28:00,51.3,50.7,28.88,SSE,158,0.0,0.0,98,0.00,CLR,,0.00,WeatherDisplay:10.37,2013-09-27 12:28:00,
2013-09-27 07:30:00,51.8,51.3,28.88,SE,135,1.2,1.2,98,0.00,CLR,,0.00,WeatherDisplay:10.37,2013-09-27 12:30:00,
2013-09-27 07:31:00,52.0,51.4,28.88,SE,135,0.0,0.0,98,0.00,CLR,,0.00,WeatherDisplay:10.37,2013-09-27 12:31:00,
2013-09-27 07:32:00,52.3,51.8,28.88,SE,135,0.0,0.0,98,0.00,CLR,,0.00,WeatherDisplay:10.37,2013-09-27 12:32:00,
2013-09-27 07:33:00,52.3,51.8,28.88,SE,135,0.0,0.0,98,0.00,CLR,,0.00,WeatherDisplay:10.37,2013-09-27 12:33:00,
2013-09-27 07:35:00,52.9,52.3,28.88,SE,135,0.0,0.0,98,0.00,CLR,,0.00,WeatherDisplay:10.37,2013-09-27 12:35:00,
2013-09-27 07:36:00,53.1,52.5,28.88,SE,135,0.0,0.0,98,0.00,CLR,,0.00,WeatherDisplay:10.37,2013-09-27 12:36:00,
2013-09-27 07:37:00,53.4,52.9,28.88,SE,135,1.2,0.0,98,0.00,CLR,,0.00,WeatherDisplay:10.37,2013-09-27 12:37:00,
2013-09-27 07:38:00,53.4,52.9,28.88,SE,135,1.2,0.0,98,0.00,CLR,,0.00,WeatherDisplay:10.37,2013-09-27 12:38:00,
2013-09-27 07:39:00,53.8,53.2,28.91,SSE,158,2.6,2.6,98,0.00,CLR,,0.00,WeatherDisplay:10.37,2013-09-27 12:39:00,
2013-09-27 07:40:00,53.8,53.2,28.91,South,180,2.3,2.3,98,0.00,CLR,,0.00,WeatherDisplay:10.37,2013-09-27 12:40:00,
2013-09-27 07:41:00,54.0,53.4,28.91,South,180,2.3,2.3,98,0.00,CLR,,0.00,WeatherDisplay:10.37,2013-09-27 12:41:00,
2013-09-27 07:43:00,54.3,53.8,28.91,South,180,1.2,1.2,98,0.00,CLR,,0.00,WeatherDisplay:10.37,2013-09-27 12:43:00,
2013-09-27 07:45:00,54.9,54.0,28.91,South,180,1.2,0.0,97,0.00,CLR,,0.00,WeatherDisplay:10.37,2013-09-27 12:45:00,
2013-09-27 07:46:00,55.0,54.2,28.91,South,180,1.2,0.0,97,0.00,CLR,,0.00,WeatherDisplay:10.37,2013-09-27 12:46:00,
2013-09-27 07:47:00,55.2,54.4,28.91,South,180,1.2,1.2,97,0.00,CLR,,0.00,WeatherDisplay:10.37,2013-09-27 12:47:00,
2013-09-27 07:48:00,55.4,54.3,28.91,SSW,202,1.2,1.2,96,0.00,CLR,,0.00,WeatherDisplay:10.37,2013-09-27 12:48:00,
2013-09-27 07:50:00,55.8,54.6,28.91,SSW,202,1.2,0.0,96,0.00,CLR,,0.00,WeatherDisplay:10.37,2013-09-27 12:50:00,
2013-09-27 07:51:00,55.8,54.6,28.91,SSW,202,0.0,0.0,96,0.00,CLR,,0.00,WeatherDisplay:10.37,2013-09-27 12:51:00,
2013-09-27 07:52:00,56.3,54.9,28.91,SSW,202,0.0,0.0,95,0.00,CLR,,0.00,WeatherDisplay:10.37,2013-09-27 12:52:00,
2013-09-27 07:53:00,56.3,54.9,28.91,SSW,202,0.0,0.0,95,0.00,CLR,,0.00,WeatherDisplay:10.37,2013-09-27 12:53:00,
2013-09-27 07:56:00,56.7,54.7,28.91,SSW,202,2.3,0.0,93,0.00,CLR,,0.00,WeatherDisplay:10.37,2013-09-27 12:56:00,
2013-09-27 07:57:00,56.8,54.8,28.91,SSW,202,2.3,0.0,93,0.00,CLR,,0.00,WeatherDisplay:10.37,2013-09-27 12:57:00,
2013-09-27 07:58:00,57.2,54.9,28.91,SSW,202,1.2,1.2,92,0.00,CLR,,0.00,WeatherDisplay:10.37,2013-09-27 12:58:00,
2013-09-27 07:59:00,57.4,55.1,28.91,SSW,202,2.0,0.0,92,0.00,CLR,,0.00,WeatherDisplay:10.37,2013-09-27 12:59:00,
2013-09-27 08:01:00,57.6,54.6,28.91,ESE,112,2.3,2.3,90,0.00,CLR,,0.00,WeatherDisplay:10.37,2013-09-27 13:01:00,
2013-09-27 08:02:00,57.7,54.8,28.91,ESE,112,2.3,2.3,90,0.00,CLR,,0.00,WeatherDisplay:10.37,2013-09-27 13:02:00,
2013-09-27 08:04:00,58.1,54.9,28.91,East,90,2.6,2.6,89,0.00,CLR,,0.00,WeatherDisplay:10.37,2013-09-27 13:04:00,
2013-09-27 08:05:00,58.5,55.2,28.91,SE,135,2.3,2.3,89,0.00,CLR,,0.00,WeatherDisplay:10.37,2013-09-27 13:05:00,
2013-09-27 08:06:00,58.5,55.2,28.91,SE,135,1.2,0.0,89,0.00,CLR,,0.00,WeatherDisplay:10.37,2013-09-27 13:06:00,
2013-09-27 08:07:00,58.5,54.9,28.91,SE,135,1.2,0.0,88,0.00,CLR,,0.00,WeatherDisplay:10.37,2013-09-27 13:07:00,
2013-09-27 08:09:00,58.5,54.3,28.91,SE,135,0.0,0.0,86,0.00,CLR,,0.00,WeatherDisplay:10.37,2013-09-27 13:09:00,
2013-09-27 08:10:00,59.4,55.5,28.91,SE,135,0.0,0.0,87,0.00,CLR,,0.00,WeatherDisplay:10.37,2013-09-27 13:10:00,
2013-09-27 08:11:00,59.5,54.7,28.91,SE,135,0.0,0.0,84,0.00,CLR,,0.00,WeatherDisplay:10.37,2013-09-27 13:11:00,
2013-09-27 08:12:00,59.7,54.9,28.91,ESE,112,1.4,0.0,84,0.00,CLR,,0.00,WeatherDisplay:10.37,2013-09-27 13:12:00,
2013-09-27 08:14:00,59.5,54.4,28.91,ESE,112,1.2,0.0,83,0.00,CLR,,0.00,WeatherDisplay:10.37,2013-09-27 13:14:00,
2013-09-27 08:15:00,59.7,54.5,28.91,ESE,112,1.6,0.0,83,0.00,CLR,,0.00,WeatherDisplay:10.37,2013-09-27 13:15:00,
2013-09-27 08:17:00,60.1,54.9,28.91,ESE,112,1.2,0.0,83,0.00,CLR,,0.00,WeatherDisplay:10.37,2013-09-27 13:17:00,
2013-09-27 08:18:00,60.3,55.1,28.91,ESE,112,1.6,0.0,83,0.00,CLR,,0.00,WeatherDisplay:10.37,2013-09-27 13:18:00,
2013-09-27 08:19:00,60.4,54.9,28.91,ESE,112,1.2,1.2,82,0.00,CLR,,0.00,WeatherDisplay:10.37,2013-09-27 13:19:00,
2013-09-27 08:20:00,60.6,54.8,28.91,ESE,112,1.2,0.0,81,0.00,CLR,,0.00,WeatherDisplay:10.37,2013-09-27 13:20:00,
2013-09-27 08:22:00,61.0,55.1,28.91,ESE,112,0.0,0.0,81,0.00,CLR,,0.00,WeatherDisplay:10.37,2013-09-27 13:22:00,
2013-09-27 08:23:00,62.1,56.5,28.91,ESE,112,2.2,2.2,82,0.00,CLR,,0.00,WeatherDisplay:10.37,2013-09-27 13:23:00,
2013-09-27 08:24:00,62.4,56.9,28.91,ESE,112,2.3,2.3,82,0.00,CLR,,0.00,WeatherDisplay:10.37,2013-09-27 13:24:00,
2013-09-27 08:26:00,63.0,56.7,28.91,ESE,112,2.2,0.0,80,0.00,CLR,,0.00,WeatherDisplay:10.37,2013-09-27 13:26:00,
2013-09-27 08:27:00,63.0,56.3,28.91,East,90,2.3,2.3,79,0.00,CLR,,0.00,WeatherDisplay:10.37,2013-09-27 13:27:00,
2013-09-27 08:28:00,62.6,54.6,28.91,ESE,112,2.3,2.3,75,0.00,CLR,,0.00,WeatherDisplay:10.37,2013-09-27 13:28:00,
2013-09-27 08:29:00,62.1,54.0,28.91,East,90,2.3,2.3,75,0.00,CLR,,0.00,WeatherDisplay:10.37,2013-09-27 13:29:00,
2013-09-27 08:31:00,62.6,54.2,28.91,East,90,2.3,2.3,74,0.00,CLR,,0.00,WeatherDisplay:10.37,2013-09-27 13:31:00,
2013-09-27 08:32:00,62.6,54.2,28.91,East,90,2.3,2.3,74,0.00,CLR,,0.00,WeatherDisplay:10.37,2013-09-27 13:32:00,
2013-09-27 08:33:00,62.8,54.0,28.91,ESE,112,2.3,2.3,73,0.00,CLR,,0.00,WeatherDisplay:10.37,2013-09-27 13:33:00,
2013-09-27 08:34:00,63.0,54.5,28.91,East,90,2.6,2.6,74,0.00,CLR,,0.00,WeatherDisplay:10.37,2013-09-27 13:34:00,
2013-09-27 08:37:00,63.1,54.3,28.91,ESE,112,2.4,2.4,73,0.00,CLR,,0.00,WeatherDisplay:10.37,2013-09-27 13:37:00,
2013-09-27 08:38:00,63.3,54.5,28.91,East,90,2.3,2.3,73,0.00,CLR,,0.00,WeatherDisplay:10.37,2013-09-27 13:38:00,
2013-09-27 08:39:00,63.7,54.9,28.91,East,90,2.3,2.3,73,0.00,CLR,,0.00,WeatherDisplay:10.37,2013-09-27 13:39:00,
2013-09-27 08:42:00,63.7,54.5,28.91,ESE,112,2.9,2.9,72,0.00,CLR,,0.00,WeatherDisplay:10.37,2013-09-27 13:42:00,
2013-09-27 08:43:00,63.5,53.9,28.91,ESE,112,2.3,2.3,71,0.00,CLR,,0.00,WeatherDisplay:10.37,2013-09-27 13:43:00,
2013-09-27 08:44:00,63.5,53.5,28.91,ESE,112,2.9,2.9,70,0.00,CLR,,0.00,WeatherDisplay:10.37,2013-09-27 13:44:00,
2013-09-27 08:45:00,63.5,53.5,28.91,ESE,112,2.3,2.3,70,0.00,CLR,,0.00,WeatherDisplay:10.37,2013-09-27 13:45:00,
2013-09-27 08:47:00,63.7,52.9,28.91,ESE,112,3.5,3.5,68,0.00,CLR,,0.00,WeatherDisplay:10.37,2013-09-27 13:47:00,
2013-09-27 08:48:00,63.7,52.9,28.91,ESE,112,3.5,3.5,68,0.00,CLR,,0.00,WeatherDisplay:10.37,2013-09-27 13:48:00,
2013-09-27 08:49:00,63.7,53.3,28.91,ESE,112,3.5,3.5,69,0.00,CLR,,0.00,WeatherDisplay:10.37,2013-09-27 13:49:00,
2013-09-27 08:50:00,63.7,52.9,28.91,ESE,112,2.3,2.3,68,0.00,CLR,,0.00,WeatherDisplay:10.37,2013-09-27 13:50:00,
2013-09-27 08:52:00,64.0,52.9,28.91,East,90,2.4,2.4,67,0.00,CLR,,0.00,WeatherDisplay:10.37,2013-09-27 13:52:00,
2013-09-27 08:53:00,64.0,52.9,28.91,East,90,2.4,2.4,67,0.00,CLR,,0.00,WeatherDisplay:10.37,2013-09-27 13:53:00,
2013-09-27 08:54:00,64.0,52.9,28.91,SE,135,2.3,2.3,67,0.00,CLR,,0.00,WeatherDisplay:10.37,2013-09-27 13:54:00,
2013-09-27 08:55:00,64.0,53.3,28.91,East,90,2.4,2.4,68,0.00,CLR,,0.00,WeatherDisplay:10.37,2013-09-27 13:55:00,
2013-09-27 08:57:00,64.4,53.6,28.91,East,90,2.4,2.4,68,0.00,CLR,,0.00,WeatherDisplay:10.37,2013-09-27 13:57:00,
2013-09-27 08:58:00,64.4,53.6,28.91,SE,135,2.4,2.4,68,0.00,CLR,,0.00,WeatherDisplay:10.37,2013-09-27 13:58:00,
2013-09-27 08:59:00,64.4,53.2,28.91,SE,135,2.3,2.3,67,0.00,CLR,,0.00,WeatherDisplay:10.37,2013-09-27 13:59:00,
2013-09-27 09:00:00,64.4,53.2,28.91,ESE,114,1.0,2.0,67,0.00,CLR,,0.00,WeatherDisplay:10.37,2013-09-27 14:00:00,
2013-09-27 09:02:00,64.6,53.4,28.91,East,90,2.3,2.3,67,0.00,CLR,,0.00,WeatherDisplay:10.37,2013-09-27 14:02:00,
2013-09-27 09:03:00,64.6,53.4,28.91,SSE,158,2.3,2.3,67,0.00,CLR,,0.00,WeatherDisplay:10.37,2013-09-27 14:03:00,
2013-09-27 09:04:00,65.1,53.5,28.91,SE,135,2.4,2.4,66,0.00,CLR,,0.00,WeatherDisplay:10.37,2013-09-27 14:04:00,
2013-09-27 09:05:00,65.3,53.2,28.91,ESE,112,2.4,2.4,65,0.00,CLR,,0.00,WeatherDisplay:10.37,2013-09-27 14:05:00,
2013-09-27 09:06:00,65.3,53.2,28.91,ESE,112,2.3,2.3,65,0.00,CLR,,0.00,WeatherDisplay:10.37,2013-09-27 14:06:00,
2013-09-27 09:08:00,65.5,53.4,28.91,East,90,2.3,2.3,65,0.00,CLR,,0.00,WeatherDisplay:10.37,2013-09-27 14:08:00,
2013-09-27 09:10:00,65.8,53.3,28.91,ESE,112,2.3,2.3,64,0.00,CLR,,0.00,WeatherDisplay:10.37,2013-09-27 14:10:00,
2013-09-27 09:11:00,65.8,53.7,28.91,SE,135,2.3,2.3,65,0.00,CLR,,0.00,WeatherDisplay:10.37,2013-09-27 14:11:00,
2013-09-27 09:13:00,65.8,52.9,28.91,SSE,158,3.5,3.5,63,0.00,CLR,,0.00,WeatherDisplay:10.37,2013-09-27 14:13:00,
2013-09-27 09:15:00,65.8,50.6,28.91,SE,135,9.7,9.7,58,0.00,CLR,,0.00,WeatherDisplay:10.37,2013-09-27 14:15:00,
2013-09-27 09:16:00,65.8,51.1,28.91,SSE,158,9.2,9.2,59,0.00,CLR,,0.00,WeatherDisplay:10.37,2013-09-27 14:16:00,
2013-09-27 09:17:00,65.8,52.0,28.91,South,180,9.2,9.2,61,0.00,CLR,,0.00,WeatherDisplay:10.37,2013-09-27 14:17:00,
2013-09-27 09:18:00,66.0,52.2,28.91,ESE,112,5.8,5.8,61,0.00,CLR,,0.00,WeatherDisplay:10.37,2013-09-27 14:18:00,
2013-09-27 09:20:00,66.4,52.5,28.91,SE,135,3.8,3.8,61,0.00,CLR,,0.00,WeatherDisplay:10.37,2013-09-27 14:20:00,
2013-09-27 09:21:00,66.6,52.7,28.91,SE,135,5.8,5.8,61,0.00,CLR,,0.00,WeatherDisplay:10.37,2013-09-27 14:21:00,
2013-09-27 09:22:00,66.6,52.7,28.91,SE,135,8.1,8.1,61,0.00,CLR,,0.00,WeatherDisplay:10.37,2013-09-27 14:22:00,
2013-09-27 09:23:00,66.6,50.8,28.91,SSE,158,9.7,9.7,57,0.00,CLR,,0.00,WeatherDisplay:10.37,2013-09-27 14:23:00,
2013-09-27 09:25:00,66.6,50.4,28.91,SSE,158,6.9,6.9,56,0.00,CLR,,0.00,WeatherDisplay:10.37,2013-09-27 14:25:00,
2013-09-27 09:26:00,66.9,51.2,28.91,SSE,158,5.4,5.4,57,0.00,CLR,,0.00,WeatherDisplay:10.37,2013-09-27 14:26:00,
2013-09-27 09:27:00,66.9,50.2,28.91,SSE,158,9.2,9.2,55,0.00,CLR,,0.00,WeatherDisplay:10.37,2013-09-27 14:27:00,
2013-09-27 09:28:00,66.9,50.2,28.91,SSE,158,8.1,8.1,55,0.00,CLR,,0.00,WeatherDisplay:10.37,2013-09-27 14:28:00,
2013-09-27 09:31:00,67.5,50.7,28.91,SSE,158,4.6,4.6,55,0.00,CLR,,0.00,WeatherDisplay:10.37,2013-09-27 14:31:00,
2013-09-27 09:32:00,67.5,50.7,28.91,SSE,158,4.6,4.6,55,0.00,CLR,,0.00,WeatherDisplay:10.37,2013-09-27 14:32:00,
2013-09-27 09:33:00,67.8,51.1,28.91,SSE,158,7.1,7.1,55,0.00,CLR,,0.00,WeatherDisplay:10.37,2013-09-27 14:33:00,
2013-09-27 09:36:00,67.5,50.2,28.91,SE,135,7.4,7.4,54,0.00,CLR,,0.00,WeatherDisplay:10.37,2013-09-27 14:36:00,
2013-09-27 09:37:00,67.5,50.2,28.91,SSE,158,6.9,6.9,54,0.00,CLR,,0.00,WeatherDisplay:10.37,2013-09-27 14:37:00,
2013-09-27 09:38:00,67.8,50.1,28.91,South,180,4.6,4.6,53,0.00,CLR,,0.00,WeatherDisplay:10.37,2013-09-27 14:38:00,
2013-09-27 09:41:00,68.0,49.7,28.91,South,180,8.1,8.1,52,0.00,CLR,,0.00,WeatherDisplay:10.37,2013-09-27 14:41:00,
2013-09-27 09:43:00,68.2,49.4,28.91,WSW,248,10.2,10.2,51,0.00,CLR,,0.00,WeatherDisplay:10.37,2013-09-27 14:43:00,
2013-09-27 09:44:00,68.4,49.5,28.91,South,180,10.4,10.4,51,0.00,CLR,,0.00,WeatherDisplay:10.37,2013-09-27 14:44:00,
2013-09-27 09:46:00,68.7,49.9,28.91,SSE,158,7.6,7.6,51,0.00,CLR,,0.00,WeatherDisplay:10.37,2013-09-27 14:46:00,
2013-09-27 09:47:00,68.7,49.9,28.91,SSW,202,10.2,10.2,51,0.00,CLR,,0.00,WeatherDisplay:10.37,2013-09-27 14:47:00,
2013-09-27 09:48:00,68.7,49.9,28.91,South,180,10.4,10.4,51,0.00,CLR,,0.00,WeatherDisplay:10.37,2013-09-27 14:48:00,
2013-09-27 09:49:00,68.9,50.0,28.91,SSE,158,8.1,8.1,51,0.00,CLR,,0.00,WeatherDisplay:10.37,2013-09-27 14:49:00,
2013-09-27 09:52:00,68.7,49.3,28.91,South,180,10.4,10.4,50,0.00,CLR,,0.00,WeatherDisplay:10.37,2013-09-27 14:52:00,
2013-09-27 09:53:00,68.9,50.0,28.91,South,180,9.2,9.2,51,0.00,CLR,,0.00,WeatherDisplay:10.37,2013-09-27 14:53:00,
2013-09-27 09:54:00,68.9,50.0,28.88,SSW,202,8.1,8.1,51,0.00,CLR,,0.00,WeatherDisplay:10.37,2013-09-27 14:54:00,
2013-09-27 09:57:00,69.3,50.4,28.88,West,270,9.2,9.2,51,0.00,CLR,,0.00,WeatherDisplay:10.37,2013-09-27 14:57:00,
2013-09-27 09:58:00,69.6,50.2,28.88,SSE,158,10.4,10.4,50,0.00,CLR,,0.00,WeatherDisplay:10.37,2013-09-27 14:58:00,
2013-09-27 09:59:00,69.6,50.2,28.88,SSE,158,9.2,9.2,50,0.00,CLR,,0.00,WeatherDisplay:10.37,2013-09-27 14:59:00,
2013-09-27 10:02:00,70.3,50.3,28.88,South,180,9.2,9.2,49,0.00,CLR,,0.00,WeatherDisplay:10.37,2013-09-27 15:02:00,
2013-09-27 10:03:00,70.5,50.4,28.88,South,180,9.2,9.2,49,0.00,CLR,,0.00,WeatherDisplay:10.37,2013-09-27 15:03:00,
2013-09-27 10:04:00,70.5,50.4,28.88,South,180,8.1,8.1,49,0.00,CLR,,0.00,WeatherDisplay:10.37,2013-09-27 15:04:00,
2013-09-27 10:07:00,70.5,50.4,28.88,South,180,8.5,8.5,49,0.00,CLR,,0.00,WeatherDisplay:10.37,2013-09-27 15:07:00,
2013-09-27 10:08:00,70.5,50.4,28.88,SE,135,8.1,8.1,49,0.00,CLR,,0.00,WeatherDisplay:10.37,2013-09-27 15:08:00,
2013-09-27 10:09:00,70.5,50.4,28.88,South,180,8.1,8.1,49,0.00,CLR,,0.00,WeatherDisplay:10.37,2013-09-27 15:09:00,
2013-09-27 10:10:00,71.2,50.5,28.91,SSE,158,7.1,7.1,48,0.00,CLR,,0.00,WeatherDisplay:10.37,2013-09-27 15:10:00,
2013-09-27 10:13:00,71.6,49.7,28.91,SSE,158,12.7,12.7,46,0.00,CLR,,0.00,WeatherDisplay:10.37,2013-09-27 15:13:00,
2013-09-27 10:14:00,71.8,50.5,28.91,SSE,158,8.1,8.1,47,0.00,CLR,,0.00,WeatherDisplay:10.37,2013-09-27 15:14:00,
2013-09-27 10:15:00,72.0,50.0,28.91,SE,135,5.8,5.8,46,0.00,CLR,,0.00,WeatherDisplay:10.37,2013-09-27 15:15:00,
2013-09-27 10:18:00,71.6,49.1,28.91,SW,225,16.1,16.1,45,0.00,CLR,,0.00,WeatherDisplay:10.37,2013-09-27 15:18:00,
2013-09-27 10:19:00,71.6,49.1,28.91,SE,135,11.5,11.5,45,0.00,CLR,,0.00,WeatherDisplay:10.37,2013-09-27 15:19:00,
2013-09-27 10:20:00,71.8,48.7,28.91,SSE,158,7.8,7.8,44,0.00,CLR,,0.00,WeatherDisplay:10.37,2013-09-27 15:20:00,
2013-09-27 10:24:00,72.3,49.2,28.91,SSE,158,9.2,9.2,44,0.00,CLR,,0.00,WeatherDisplay:10.37,2013-09-27 15:24:00,
2013-09-27 10:26:00,72.1,49.0,28.91,SSW,202,9.2,9.2,44,0.00,CLR,,0.00,WeatherDisplay:10.37,2013-09-27 15:26:00,
2013-09-27 10:29:00,73.0,50.4,28.91,SSE,158,10.4,10.4,45,0.00,CLR,,0.00,WeatherDisplay:10.37,2013-09-27 15:29:00,
2013-09-27 10:30:00,73.0,50.4,28.91,SE,135,10.4,10.4,45,0.00,CLR,,0.00,WeatherDisplay:10.37,2013-09-27 15:30:00,
2013-09-27 10:31:00,73.6,50.3,28.91,South,180,8.7,8.7,44,0.00,CLR,,0.00,WeatherDisplay:10.37,2013-09-27 15:31:00,
2013-09-27 10:34:00,73.2,49.4,28.91,SW,225,13.8,13.8,43,0.00,CLR,,0.00,WeatherDisplay:10.37,2013-09-27 15:34:00,
2013-09-27 10:35:00,73.2,49.4,28.91,SSW,193,7.0,14.0,43,0.00,CLR,,0.00,WeatherDisplay:10.37,2013-09-27 15:35:00,
2013-09-27 10:36:00,73.4,49.5,28.91,North,0,5.8,5.9,43,0.00,CLR,,0.00,WeatherDisplay:10.37,2013-09-27 15:36:00,
2013-09-27 10:39:00,73.6,49.1,28.88,SSE,158,19.2,19.2,42,0.00,CLR,,0.00,WeatherDisplay:10.37,2013-09-27 15:39:00,
2013-09-27 10:40:00,73.2,48.7,28.88,SSW,202,19.6,19.6,42,0.00,CLR,,0.00,WeatherDisplay:10.37,2013-09-27 15:40:00,
2013-09-27 10:41:00,73.2,49.4,28.88,SW,225,13.8,13.8,43,0.00,CLR,,0.00,WeatherDisplay:10.37,2013-09-27 15:41:00,
2013-09-27 10:45:00,73.9,50.0,28.88,SSE,158,14.3,14.3,43,0.00,CLR,,0.00,WeatherDisplay:10.37,2013-09-27 15:45:00,
2013-09-27 10:47:00,73.9,49.4,28.88,South,180,9.2,9.2,42,0.00,CLR,,0.00,WeatherDisplay:10.37,2013-09-27 15:47:00,
2013-09-27 10:50:00,74.3,50.4,28.88,SSE,158,6.9,6.9,43,0.00,CLR,,0.00,WeatherDisplay:10.37,2013-09-27 15:50:00,
2013-09-27 10:51:00,74.7,50.7,28.88,SE,135,8.5,8.5,43,0.00,CLR,,0.00,WeatherDisplay:10.37,2013-09-27 15:51:00,
2013-09-27 10:52:00,74.8,50.2,28.88,SSE,158,11.5,11.5,42,0.00,CLR,,0.00,WeatherDisplay:10.37,2013-09-27 15:52:00,
2013-09-27 10:55:00,74.5,49.9,28.88,South,180,12.7,12.7,42,0.00,CLR,,0.00,WeatherDisplay:10.37,2013-09-27 15:55:00,
2013-09-27 10:56:00,74.3,49.7,28.88,South,180,12.7,12.7,42,0.00,CLR,,0.00,WeatherDisplay:10.37,2013-09-27 15:56:00,
2013-09-27 10:57:00,74.3,49.7,28.88,SSE,158,14.0,14.0,42,0.00,CLR,,0.00,WeatherDisplay:10.37,2013-09-27 15:57:00,
2013-09-27 11:00:00,74.5,49.9,28.88,SSE,158,8.1,8.1,42,0.00,CLR,,0.00,WeatherDisplay:10.37,2013-09-27 16:00:00,
2013-09-27 11:01:00,74.3,49.7,28.88,SSW,202,17.5,17.5,42,0.00,CLR,,0.00,WeatherDisplay:10.37,2013-09-27 16:01:00,
2013-09-27 11:02:00,73.9,49.4,28.88,SSE,158,17.3,17.3,42,0.00,CLR,,0.00,WeatherDisplay:10.37,2013-09-27 16:02:00,
2013-09-27 11:05:00,74.7,50.7,28.88,SSE,158,8.1,8.1,43,0.00,CLR,,0.00,WeatherDisplay:10.37,2013-09-27 16:05:00,
2013-09-27 11:06:00,75.0,50.4,28.88,SSE,158,8.1,8.1,42,0.00,CLR,,0.00,WeatherDisplay:10.37,2013-09-27 16:06:00,
2013-09-27 11:08:00,75.4,50.7,28.88,SSW,202,8.5,8.5,42,0.00,CLR,,0.00,WeatherDisplay:10.37,2013-09-27 16:08:00,
2013-09-27 11:10:00,75.2,50.5,28.88,WSW,248,10.4,10.4,42,0.00,CLR,,0.00,WeatherDisplay:10.37,2013-09-27 16:10:00,
2013-09-27 11:11:00,75.2,50.5,28.88,SSW,202,9.2,9.2,42,0.00,CLR,,0.00,WeatherDisplay:10.37,2013-09-27 16:11:00,
2013-09-27 11:12:00,75.0,50.4,28.88,SSW,202,8.1,8.1,42,0.00,CLR,,0.00,WeatherDisplay:10.37,2013-09-27 16:12:00,
2013-09-27 11:13:00,75.0,51.0,28.88,South,180,6.9,6.9,43,0.00,CLR,,0.00,WeatherDisplay:10.37,2013-09-27 16:13:00,
2013-09-27 11:15:00,75.6,51.5,28.88,SSW,202,4.6,4.6,43,0.00,CLR,,0.00,WeatherDisplay:10.37,2013-09-27 16:15:00,
2013-09-27 11:16:00,75.6,50.9,28.88,South,180,5.6,5.6,42,0.00,CLR,,0.00,WeatherDisplay:10.37,2013-09-27 16:16:00,
2013-09-27 11:17:00,75.7,51.0,28.88,SSE,158,5.8,5.8,42,0.00,CLR,,0.00,WeatherDisplay:10.37,2013-09-27 16:17:00,
2013-09-27 11:18:00,75.7,51.0,28.88,SSE,158,10.4,10.4,42,0.00,CLR,,0.00,WeatherDisplay:10.37,2013-09-27 16:18:00,
2013-09-27 11:20:00,76.1,51.3,28.88,SSE,158,10.4,10.4,42,0.00,CLR,,0.00,WeatherDisplay:10.37,2013-09-27 16:20:00,
2013-09-27 11:21:00,76.3,51.5,28.88,NE,45,10.4,10.4,42,0.00,CLR,,0.00,WeatherDisplay:10.37,2013-09-27 16:21:00,
2013-09-27 11:22:00,76.8,52.0,28.88,SSW,202,5.8,5.8,42,0.00,CLR,,0.00,WeatherDisplay:10.37,2013-09-27 16:22:00,
2013-09-27 11:23:00,76.8,52.0,28.88,WSW,248,9.2,9.2,42,0.00,CLR,,0.00,WeatherDisplay:10.37,2013-09-27 16:23:00,
2013-09-27 11:26:00,77.0,51.5,28.88,South,180,10.4,10.4,41,0.00,CLR,,0.00,WeatherDisplay:10.37,2013-09-27 16:26:00,
2013-09-27 11:27:00,77.0,51.5,28.88,South,180,12.7,12.7,41,0.00,CLR,,0.00,WeatherDisplay:10.37,2013-09-27 16:27:00,
2013-09-27 11:28:00,77.4,51.8,28.88,SSW,202,5.8,5.8,41,0.00,CLR,,0.00,WeatherDisplay:10.37,2013-09-27 16:28:00,
2013-09-27 11:31:00,77.7,51.5,28.88,SSE,158,9.2,9.2,40,0.00,CLR,,0.00,WeatherDisplay:10.37,2013-09-27 16:31:00,
2013-09-27 11:32:00,77.5,51.3,28.88,SSE,158,10.4,10.4,40,0.00,CLR,,0.00,WeatherDisplay:10.37,2013-09-27 16:32:00,
2013-09-27 11:33:00,77.2,51.0,28.88,South,180,13.8,13.8,40,0.00,CLR,,0.00,WeatherDisplay:10.37,2013-09-27 16:33:00,
2013-09-27 11:36:00,76.8,50.7,28.88,SSW,202,12.7,12.7,40,0.00,CLR,,0.00,WeatherDisplay:10.37,2013-09-27 16:36:00,
2013-09-27 11:37:00,77.0,50.1,28.88,SSE,158,12.7,12.7,39,0.00,CLR,,0.00,WeatherDisplay:10.37,2013-09-27 16:37:00,
2013-09-27 11:38:00,77.2,51.0,28.88,SSE,158,7.4,7.4,40,0.00,CLR,,0.00,WeatherDisplay:10.37,2013-09-27 16:38:00,
2013-09-27 11:39:00,77.4,49.8,28.88,SSW,202,9.2,9.2,38,0.00,CLR,,0.00,WeatherDisplay:10.37,2013-09-27 16:39:00,
2013-09-27 11:41:00,77.2,49.6,28.88,SSE,158,16.1,16.1,38,0.00,CLR,,0.00,WeatherDisplay:10.37,2013-09-27 16:41:00,
2013-09-27 11:42:00,77.0,50.1,28.88,South,180,16.1,16.1,39,0.00,CLR,,0.00,WeatherDisplay:10.37,2013-09-27 16:42:00,
2013-09-27 11:43:00,77.0,49.4,28.88,SSE,158,15.0,15.0,38,0.00,CLR,,0.00,WeatherDisplay:10.37,2013-09-27 16:43:00,
2013-09-27 11:44:00,77.0,50.8,28.88,South,180,10.4,10.4,40,0.00,CLR,,0.00,WeatherDisplay:10.37,2013-09-27 16:44:00,
2013-09-27 11:46:00,77.7,51.5,28.88,SSW,202,12.7,12.7,40,0.00,CLR,,0.00,WeatherDisplay:10.37,2013-09-27 16:46:00,
2013-09-27 11:47:00,77.9,50.2,28.88,SSW,202,6.9,6.9,38,0.00,CLR,,0.00,WeatherDisplay:10.37,2013-09-27 16:47:00,
2013-09-27 11:48:00,77.9,50.2,28.88,SW,225,6.9,6.9,38,0.00,CLR,,0.00,WeatherDisplay:10.37,2013-09-27 16:48:00,
2013-09-27 11:49:00,78.8,52.4,28.88,SW,225,4.6,4.6,40,0.00,CLR,,0.00,WeatherDisplay:10.37,2013-09-27 16:49:00,
2013-09-27 11:51:00,78.8,51.0,28.88,SSW,202,13.0,13.0,38,0.00,CLR,,0.00,WeatherDisplay:10.37,2013-09-27 16:51:00,
2013-09-27 11:52:00,78.6,50.2,28.88,SE,135,12.7,12.7,37,0.00,CLR,,0.00,WeatherDisplay:10.37,2013-09-27 16:52:00,
2013-09-27 11:53:00,78.4,51.4,28.88,SE,135,9.2,9.2,39,0.00,CLR,,0.00,WeatherDisplay:10.37,2013-09-27 16:53:00,
2013-09-27 11:54:00,78.4,50.0,28.88,SSE,158,11.5,11.5,37,0.00,CLR,,0.00,WeatherDisplay:10.37,2013-09-27 16:54:00,
2013-09-27 11:56:00,78.3,50.6,28.88,West,270,12.7,12.7,38,0.00,CLR,,0.00,WeatherDisplay:10.37,2013-09-27 16:56:00,
2013-09-27 11:57:00,78.4,50.7,28.88,WSW,248,10.4,10.4,38,0.00,CLR,,0.00,WeatherDisplay:10.37,2013-09-27 16:57:00,
2013-09-27 11:58:00,78.4,50.7,28.88,South,180,12.8,12.8,38,0.00,CLR,,0.00,WeatherDisplay:10.37,2013-09-27 16:58:00,
2013-09-27 11:59:00,78.3,49.8,28.88,WSW,248,15.2,15.2,37,0.00,CLR,,0.00,WeatherDisplay:10.37,2013-09-27 16:59:00,
2013-09-27 12:01:00,78.4,50.7,28.88,South,180,8.1,8.1,38,0.00,CLR,,0.00,WeatherDisplay:10.37,2013-09-27 17:01:00,
2013-09-27 12:03:00,78.3,50.6,28.88,ESE,112,8.1,8.1,38,0.00,CLR,,0.00,WeatherDisplay:10.37,2013-09-27 17:03:00,
2013-09-27 12:04:00,78.6,50.2,28.88,SSE,158,8.1,8.1,37,0.00,CLR,,0.00,WeatherDisplay:10.37,2013-09-27 17:04:00,
2013-09-27 12:05:00,78.4,50.7,28.88,SSW,202,15.0,15.0,38,0.00,CLR,,0.00,WeatherDisplay:10.37,2013-09-27 17:05:00,
2013-09-27 12:06:00,78.6,50.2,28.88,SSW,202,7.4,7.4,37,0.00,CLR,,0.00,WeatherDisplay:10.37,2013-09-27 17:06:00,
2013-09-27 12:08:00,78.8,51.0,28.88,SW,225,6.9,6.9,38,0.00,CLR,,0.00,WeatherDisplay:10.37,2013-09-27 17:08:00,
2013-09-27 12:09:00,79.2,50.6,28.88,South,180,5.8,5.8,37,0.00,CLR,,0.00,WeatherDisplay:10.37,2013-09-27 17:09:00,
2013-09-27 12:10:00,79.5,51.0,28.88,SW,225,5.8,5.8,37,0.00,CLR,,0.00,WeatherDisplay:10.37,2013-09-27 17:10:00,
2013-09-27 12:12:00,79.9,51.3,28.88,South,180,10.5,10.5,37,0.00,CLR,,0.00,WeatherDisplay:10.37,2013-09-27 17:12:00,
2013-09-27 12:13:00,79.5,50.2,28.88,SSW,202,13.8,13.8,36,0.00,CLR,,0.00,WeatherDisplay:10.37,2013-09-27 17:13:00,
2013-09-27 12:14:00,79.0,49.0,28.88,South,180,13.8,13.8,35,0.00,CLR,,0.00,WeatherDisplay:10.37,2013-09-27 17:14:00,
2013-09-27 12:15:00,78.4,49.3,28.88,South,180,16.1,16.1,36,0.00,CLR,,0.00,WeatherDisplay:10.37,2013-09-27 17:15:00,
2013-09-27 12:17:00,78.4,50.0,28.88,WSW,248,12.7,12.7,37,0.00,CLR,,0.00,WeatherDisplay:10.37,2013-09-27 17:17:00,
2013-09-27 12:18:00,78.4,50.7,28.88,SSE,158,12.7,12.7,38,0.00,CLR,,0.00,WeatherDisplay:10.37,2013-09-27 17:18:00,
2013-09-27 12:19:00,79.2,50.6,28.88,South,180,5.8,5.8,37,0.00,CLR,,0.00,WeatherDisplay:10.37,2013-09-27 17:19:00,
2013-09-27 12:21:00,79.5,50.2,28.88,West,270,6.4,6.4,36,0.00,CLR,,0.00,WeatherDisplay:10.37,2013-09-27 17:21:00,
2013-09-27 12:22:00,79.5,51.0,28.88,SSW,202,7.6,7.6,37,0.00,CLR,,0.00,WeatherDisplay:10.37,2013-09-27 17:22:00,
2013-09-27 12:23:00,79.5,51.0,28.88,NNE,22,8.1,8.1,37,0.00,CLR,,0.00,WeatherDisplay:10.37,2013-09-27 17:23:00,
2013-09-27 12:26:00,79.9,52.0,28.88,SSE,158,5.8,5.8,38,0.00,CLR,,0.00,WeatherDisplay:10.37,2013-09-27 17:26:00,
2013-09-27 12:27:00,80.2,52.3,28.88,SSE,158,8.1,8.1,38,0.00,CLR,,0.00,WeatherDisplay:10.37,2013-09-27 17:27:00,
2013-09-27 12:28:00,80.2,51.6,28.88,NNW,338,5.8,5.8,37,0.00,CLR,,0.00,WeatherDisplay:10.37,2013-09-27 17:28:00,
2013-09-27 12:29:00,80.2,51.6,28.88,SW,225,5.8,5.8,37,0.00,CLR,,0.00,WeatherDisplay:10.37,2013-09-27 17:29:00,
2013-09-27 12:31:00,80.4,51.0,28.88,South,180,11.5,11.5,36,0.00,CLR,,0.00,WeatherDisplay:10.37,2013-09-27 17:31:00,
2013-09-27 12:32:00,80.2,51.6,28.88,WNW,292,11.5,11.5,37,0.00,CLR,,0.00,WeatherDisplay:10.37,2013-09-27 17:32:00,
2013-09-27 12:34:00,80.6,51.2,28.88,SE,135,11.8,11.8,36,0.00,CLR,,0.00,WeatherDisplay:10.37,2013-09-27 17:34:00,
2013-09-27 12:36:00,80.1,49.9,28.88,WSW,248,8.1,8.1,35,0.00,CLR,,0.00,WeatherDisplay:10.37,2013-09-27 17:36:00,
2013-09-27 12:37:00,80.1,49.9,28.88,South,180,10.4,10.4,35,0.00,CLR,,0.00,WeatherDisplay:10.37,2013-09-27 17:37:00,
2013-09-27 12:38:00,79.9,51.3,28.88,South,180,15.2,15.2,37,0.00,CLR,,0.00,WeatherDisplay:10.37,2013-09-27 17:38:00,
2013-09-27 12:39:00,79.2,49.1,28.88,South,180,15.0,15.0,35,0.00,CLR,,0.00,WeatherDisplay:10.37,2013-09-27 17:39:00,
2013-09-27 12:42:00,79.2,49.9,28.88,SW,225,15.0,15.0,36,0.00,CLR,,0.00,WeatherDisplay:10.37,2013-09-27 17:42:00,
2013-09-27 12:43:00,79.3,50.1,28.88,WSW,248,13.8,13.8,36,0.00,CLR,,0.00,WeatherDisplay:10.37,2013-09-27 17:43:00,
2013-09-27 12:44:00,79.3,50.1,28.88,SSE,158,15.0,15.0,36,0.00,CLR,,0.00,WeatherDisplay:10.37,2013-09-27 17:44:00,
2013-09-27 12:45:00,79.0,49.7,28.88,South,180,15.0,15.0,36,0.00,CLR,,0.00,WeatherDisplay:10.37,2013-09-27 17:45:00,
2013-09-27 12:47:00,79.2,49.9,28.88,SSE,158,13.8,13.8,36,0.00,CLR,,0.00,WeatherDisplay:10.37,2013-09-27 17:47:00,
2013-09-27 12:48:00,79.2,49.9,28.88,South,180,8.1,8.1,36,0.00,CLR,,0.00,WeatherDisplay:10.37,2013-09-27 17:48:00,
2013-09-27 12:49:00,79.3,50.1,28.88,SSE,158,18.7,18.7,36,0.00,CLR,,0.00,WeatherDisplay:10.37,2013-09-27 17:49:00,
2013-09-27 12:50:00,78.8,48.8,28.88,SSE,158,10.4,12.1,35,0.00,CLR,,0.00,WeatherDisplay:10.37,2013-09-27 17:50:00,
2013-09-27 12:52:00,78.8,49.6,28.88,South,180,15.4,15.4,36,0.00,CLR,,0.00,WeatherDisplay:10.37,2013-09-27 17:52:00,
2013-09-27 12:53:00,78.8,50.3,28.88,WNW,292,15.0,15.0,37,0.00,CLR,,0.00,WeatherDisplay:10.37,2013-09-27 17:53:00,
2013-09-27 12:54:00,79.0,50.5,28.88,SSW,202,13.8,13.8,37,0.00,CLR,,0.00,WeatherDisplay:10.37,2013-09-27 17:54:00,
2013-09-27 12:55:00,79.0,49.7,28.85,SSE,158,11.5,11.5,36,0.00,CLR,,0.00,WeatherDisplay:10.37,2013-09-27 17:55:00,
2013-09-27 12:57:00,79.3,50.8,28.85,SW,225,6.9,6.9,37,0.00,CLR,,0.00,WeatherDisplay:10.37,2013-09-27 17:57:00,
2013-09-27 12:59:00,79.9,51.3,28.85,SW,225,8.1,8.1,37,0.00,CLR,,0.00,WeatherDisplay:10.37,2013-09-27 17:59:00,
2013-09-27 13:00:00,79.9,51.3,28.85,WSW,248,8.1,8.1,37,0.00,CLR,,0.00,WeatherDisplay:10.37,2013-09-27 18:00:00,
2013-09-27 13:02:00,80.2,51.6,28.85,SSE,158,10.4,10.4,37,0.00,CLR,,0.00,WeatherDisplay:10.37,2013-09-27 18:02:00,
2013-09-27 13:04:00,80.1,51.4,28.85,SSW,202,10.4,10.4,37,0.00,CLR,,0.00,WeatherDisplay:10.37,2013-09-27 18:04:00,
2013-09-27 13:05:00,80.2,52.3,28.85,South,180,11.2,11.2,38,0.00,CLR,,0.00,WeatherDisplay:10.37,2013-09-27 18:05:00,
2013-09-27 13:08:00,79.2,49.9,28.85,West,270,24.2,24.2,36,0.00,CLR,,0.00,WeatherDisplay:10.37,2013-09-27 18:08:00,
2013-09-27 13:09:00,79.3,51.5,28.85,SSW,202,12.3,12.3,38,0.00,CLR,,0.00,WeatherDisplay:10.37,2013-09-27 18:09:00,
2013-09-27 13:10:00,79.3,50.8,28.82,SSE,158,13.8,13.8,37,0.00,CLR,,0.00,WeatherDisplay:10.37,2013-09-27 18:10:00,
2013-09-27 13:11:00,79.2,50.6,28.82,SSE,158,13.8,13.8,37,0.00,CLR,,0.00,WeatherDisplay:10.37,2013-09-27 18:11:00,
2013-09-27 13:13:00,79.2,49.9,28.82,SSW,202,12.7,12.7,36,0.00,CLR,,0.00,WeatherDisplay:10.37,2013-09-27 18:13:00,
2013-09-27 13:15:00,79.5,51.7,28.82,SE,135,11.5,11.5,38,0.00,CLR,,0.00,WeatherDisplay:10.37,2013-09-27 18:15:00,
2013-09-27 13:16:00,79.5,51.0,28.82,South,180,10.5,10.5,37,0.00,CLR,,0.00,WeatherDisplay:10.37,2013-09-27 18:16:00,
2013-09-27 13:18:00,79.5,51.0,28.82,SE,135,10.4,10.4,37,0.00,CLR,,0.00,WeatherDisplay:10.37,2013-09-27 18:18:00,
2013-09-27 13:20:00,79.2,50.6,28.82,SSW,202,17.3,17.3,37,0.00,CLR,,0.00,WeatherDisplay:10.37,2013-09-27 18:20:00,
2013-09-27 13:22:00,79.5,51.0,28.82,South,180,8.1,8.1,37,0.00,CLR,,0.00,WeatherDisplay:10.37,2013-09-27 18:22:00,
2013-09-27 13:23:00,79.7,51.1,28.82,West,270,10.4,10.4,37,0.00,CLR,,0.00,WeatherDisplay:10.37,2013-09-27 18:23:00,
2013-09-27 13:25:00,79.9,51.3,28.82,SSE,158,10.0,10.0,37,0.00,CLR,,0.00,WeatherDisplay:10.37,2013-09-27 18:25:00,
2013-09-27 13:26:00,79.9,51.3,28.82,SSE,158,10.0,10.0,37,0.00,CLR,,0.00,WeatherDisplay:10.37,2013-09-27 18:26:00,
2013-09-27 13:27:00,79.7,51.1,28.82,SW,225,15.0,15.0,37,0.00,CLR,,0.00,WeatherDisplay:10.37,2013-09-27 18:27:00,
2013-09-27 13:28:00,80.4,53.2,28.82,SSE,158,10.4,10.4,39,0.00,CLR,,0.00,WeatherDisplay:10.37,2013-09-27 18:28:00,
2013-09-27 13:31:00,80.4,52.5,28.82,SE,135,10.4,10.4,38,0.00,CLR,,0.00,WeatherDisplay:10.37,2013-09-27 18:31:00,
2013-09-27 13:32:00,80.4,51.8,28.82,South,180,9.2,9.2,37,0.00,CLR,,0.00,WeatherDisplay:10.37,2013-09-27 18:32:00,
2013-09-27 13:33:00,80.1,51.4,28.82,South,180,10.4,10.4,37,0.00,CLR,,0.00,WeatherDisplay:10.37,2013-09-27 18:33:00,
2013-09-27 13:34:00,80.1,51.4,28.82,South,180,10.4,10.4,37,0.00,CLR,,0.00,WeatherDisplay:10.37,2013-09-27 18:34:00,
2013-09-27 13:36:00,79.9,51.3,28.82,South,180,19.6,19.6,37,0.00,CLR,,0.00,WeatherDisplay:10.37,2013-09-27 18:36:00,
2013-09-27 13:37:00,79.9,51.3,28.82,South,180,12.7,12.7,37,0.00,CLR,,0.00,WeatherDisplay:10.37,2013-09-27 18:37:00,
2013-09-27 13:39:00,79.9,50.5,28.82,SE,135,15.4,15.4,36,0.00,CLR,,0.00,WeatherDisplay:10.37,2013-09-27 18:39:00,
2013-09-27 13:40:00,79.7,51.1,28.82,South,180,15.0,15.0,37,0.00,CLR,,0.00,WeatherDisplay:10.37,2013-09-27 18:40:00,
2013-09-27 13:41:00,80.1,51.4,28.82,South,180,8.1,8.1,37,0.00,CLR,,0.00,WeatherDisplay:10.37,2013-09-27 18:41:00,
2013-09-27 13:42:00,79.9,51.3,28.82,SSE,158,8.1,8.1,37,0.00,CLR,,0.00,WeatherDisplay:10.37,2013-09-27 18:42:00,
2013-09-27 13:44:00,79.5,50.2,28.82,WSW,248,15.0,15.0,36,0.00,CLR,,0.00,WeatherDisplay:10.37,2013-09-27 18:44:00,
2013-09-27 13:45:00,79.5,50.2,28.82,SSW,202,15.0,15.0,36,0.00,CLR,,0.00,WeatherDisplay:10.37,2013-09-27 18:45:00,
2013-09-27 13:46:00,79.5,51.0,28.82,SSE,158,12.7,12.7,37,0.00,CLR,,0.00,WeatherDisplay:10.37,2013-09-27 18:46:00,
2013-09-27 13:47:00,79.7,51.1,28.82,West,270,9.2,9.2,37,0.00,CLR,,0.00,WeatherDisplay:10.37,2013-09-27 18:47:00,
2013-09-27 13:49:00,80.1,50.7,28.82,SSW,202,9.7,9.7,36,0.00,CLR,,0.00,WeatherDisplay:10.37,2013-09-27 18:49:00,
2013-09-27 13:51:00,80.2,50.9,28.82,SSE,158,10.4,10.4,36,0.00,CLR,,0.00,WeatherDisplay:10.37,2013-09-27 18:51:00,
2013-09-27 13:52:00,80.2,50.9,28.82,SSE,158,13.8,13.8,36,0.00,CLR,,0.00,WeatherDisplay:10.37,2013-09-27 18:52:00,
2013-09-27 13:53:00,80.2,50.9,28.82,SSE,158,6.9,6.9,36,0.00,CLR,,0.00,WeatherDisplay:10.37,2013-09-27 18:53:00,
2013-09-27 13:54:00,80.2,52.3,28.85,SSW,202,8.1,8.1,38,0.00,CLR,,0.00,WeatherDisplay:10.37,2013-09-27 18:54:00,
2013-09-27 13:56:00,80.6,51.2,28.85,SSW,202,5.8,5.8,36,0.00,CLR,,0.00,WeatherDisplay:10.37,2013-09-27 18:56:00,
2013-09-27 13:57:00,80.4,51.8,28.85,ESE,112,12.8,12.8,37,0.00,CLR,,0.00,WeatherDisplay:10.37,2013-09-27 18:57:00,
2013-09-27 13:58:00,80.4,51.8,28.85,SSE,158,12.7,12.7,37,0.00,CLR,,0.00,WeatherDisplay:10.37,2013-09-27 18:58:00,
2013-09-27 14:00:00,80.4,51.0,28.85,SE,135,15.0,15.0,36,0.00,CLR,,0.00,WeatherDisplay:10.37,2013-09-27 19:00:00,
2013-09-27 14:01:00,79.7,50.4,28.85,SSE,158,15.0,15.0,36,0.00,CLR,,0.00,WeatherDisplay:10.37,2013-09-27 19:01:00,
2013-09-27 14:03:00,79.5,51.0,28.85,SSE,158,10.4,10.4,37,0.00,CLR,,0.00,WeatherDisplay:10.37,2013-09-27 19:03:00,
2013-09-27 14:05:00,79.5,50.2,28.85,SSE,158,16.1,16.1,36,0.00,CLR,,0.00,WeatherDisplay:10.37,2013-09-27 19:05:00,
2013-09-27 14:06:00,79.7,51.8,28.85,SSE,158,11.5,11.5,38,0.00,CLR,,0.00,WeatherDisplay:10.37,2013-09-27 19:06:00,
2013-09-27 14:08:00,79.9,51.3,28.85,SSE,158,10.5,10.5,37,0.00,CLR,,0.00,WeatherDisplay:10.37,2013-09-27 19:08:00,
2013-09-27 14:11:00,79.7,51.1,28.85,SSE,158,17.3,17.3,37,0.00,CLR,,0.00,WeatherDisplay:10.37,2013-09-27 19:11:00,
2013-09-27 14:13:00,79.3,50.1,28.85,SSE,158,13.8,13.8,36,0.00,CLR,,0.00,WeatherDisplay:10.37,2013-09-27 19:13:00,
2013-09-27 14:14:00,79.3,51.5,28.85,SSE,158,11.5,11.5,38,0.00,CLR,,0.00,WeatherDisplay:10.37,2013-09-27 19:14:00,
2013-09-27 14:16:00,79.9,52.0,28.85,SSW,202,5.8,5.8,38,0.00,CLR,,0.00,WeatherDisplay:10.37,2013-09-27 19:16:00,
2013-09-27 14:17:00,79.9,52.0,28.85,SW,225,6.9,6.9,38,0.00,CLR,,0.00,WeatherDisplay:10.37,2013-09-27 19:17:00,
2013-09-27 14:18:00,80.1,52.2,28.85,South,180,8.7,8.7,38,0.00,CLR,,0.00,WeatherDisplay:10.37,2013-09-27 19:18:00,
2013-09-27 14:19:00,80.1,52.2,28.85,South,180,9.2,9.2,38,0.00,CLR,,0.00,WeatherDisplay:10.37,2013-09-27 19:19:00,
2013-09-27 14:21:00,80.4,51.8,28.85,SE,135,12.7,12.7,37,0.00,CLR,,0.00,WeatherDisplay:10.37,2013-09-27 19:21:00,
2013-09-27 14:22:00,80.1,50.7,28.85,SSE,158,12.7,12.7,36,0.00,CLR,,0.00,WeatherDisplay:10.37,2013-09-27 19:22:00,
2013-09-27 14:23:00,80.1,51.4,28.85,SSE,158,11.5,11.5,37,0.00,CLR,,0.00,WeatherDisplay:10.37,2013-09-27 19:23:00,
2013-09-27 14:24:00,80.1,51.4,28.85,SSE,158,11.5,11.5,37,0.00,CLR,,0.00,WeatherDisplay:10.37,2013-09-27 19:24:00,
2013-09-27 14:26:00,79.9,51.3,28.82,SSW,202,9.2,9.2,37,0.00,CLR,,0.00,WeatherDisplay:10.37,2013-09-27 19:26:00,
2013-09-27 14:27:00,80.1,50.7,28.82,South,180,8.1,8.1,36,0.00,CLR,,0.00,WeatherDisplay:10.37,2013-09-27 19:27:00,
2013-09-27 14:29:00,80.4,52.5,28.82,South,180,5.9,5.9,38,0.00,CLR,,0.00,WeatherDisplay:10.37,2013-09-27 19:29:00,
2013-09-27 14:30:00,80.6,52.6,28.82,South,180,14.3,14.3,38,0.00,CLR,,0.00,WeatherDisplay:10.37,2013-09-27 19:30:00,
2013-09-27 14:31:00,80.4,51.0,28.82,NW,315,13.8,13.8,36,0.00,CLR,,0.00,WeatherDisplay:10.37,2013-09-27 19:31:00,
2013-09-27 14:32:00,80.8,50.6,28.82,SW,225,7.8,7.8,35,0.00,CLR,,0.00,WeatherDisplay:10.37,2013-09-27 19:32:00,
2013-09-27 14:34:00,81.1,50.9,28.82,SSW,202,14.7,14.7,35,0.00,CLR,,0.00,WeatherDisplay:10.37,2013-09-27 19:34:00,
2013-09-27 14:35:00,81.1,50.9,28.82,West,270,15.0,15.0,35,0.00,CLR,,0.00,WeatherDisplay:10.37,2013-09-27 19:35:00,
2013-09-27 14:36:00,81.1,50.9,28.82,SSE,158,10.2,10.2,35,0.00,CLR,,0.00,WeatherDisplay:10.37,2013-09-27 19:36:00,
2013-09-27 14:37:00,81.0,50.7,28.82,South,180,13.8,13.8,35,0.00,CLR,,0.00,WeatherDisplay:10.37,2013-09-27 19:37:00,
2013-09-27 14:40:00,81.0,49.9,28.82,SSE,158,6.9,6.9,34,0.00,CLR,,0.00,WeatherDisplay:10.37,2013-09-27 19:40:00,
2013-09-27 14:41:00,81.3,50.3,28.82,West,270,8.1,8.1,34,0.00,CLR,,0.00,WeatherDisplay:10.37,2013-09-27 19:41:00,
2013-09-27 14:42:00,81.3,50.3,28.82,SSE,158,8.1,8.1,34,0.00,CLR,,0.00,WeatherDisplay:10.37,2013-09-27 19:42:00,
2013-09-27 14:45:00,81.7,51.4,28.82,SSE,158,8.1,8.1,35,0.00,CLR,,0.00,WeatherDisplay:10.37,2013-09-27 19:45:00,
2013-09-27 14:46:00,81.0,49.1,28.82,SSE,158,10.2,10.2,33,0.00,CLR,,0.00,WeatherDisplay:10.37,2013-09-27 19:46:00,
2013-09-27 14:47:00,81.0,49.1,28.82,ESE,112,12.8,12.8,33,0.00,CLR,,0.00,WeatherDisplay:10.37,2013-09-27 19:47:00,
2013-09-27 14:50:00,81.0,49.1,28.82,SW,225,9.7,9.7,33,0.00,CLR,,0.00,WeatherDisplay:10.37,2013-09-27 19:50:00,
2013-09-27 14:52:00,81.3,49.5,28.82,SSW,202,6.9,6.9,33,0.00,CLR,,0.00,WeatherDisplay:10.37,2013-09-27 19:52:00,
2013-09-27 14:53:00,81.3,49.5,28.82,SE,135,6.9,6.9,33,0.00,CLR,,0.00,WeatherDisplay:10.37,2013-09-27 19:53:00,
2013-09-27 14:55:00,81.1,48.5,28.79,South,180,15.0,15.0,32,0.00,CLR,,0.00,WeatherDisplay:10.37,2013-09-27 19:55:00,
2013-09-27 14:56:00,81.0,48.3,28.79,SSE,158,15.9,15.9,32,0.00,CLR,,0.00,WeatherDisplay:10.37,2013-09-27 19:56:00,
2013-09-27 14:57:00,80.8,48.2,28.79,SE,135,16.1,16.1,32,0.00,CLR,,0.00,WeatherDisplay:10.37,2013-09-27 19:57:00,
2013-09-27 14:59:00,80.8,48.2,28.79,SSE,158,11.5,11.5,32,0.00,CLR,,0.00,WeatherDisplay:10.37,2013-09-27 19:59:00,
2013-09-27 15:00:00,81.1,49.3,28.79,SSE,158,15.2,15.2,33,0.00,CLR,,0.00,WeatherDisplay:10.37,2013-09-27 20:00:00,
2013-09-27 15:01:00,81.1,49.3,28.79,SSE,158,15.0,15.0,33,0.00,CLR,,0.00,WeatherDisplay:10.37,2013-09-27 20:01:00,
2013-09-27 15:03:00,81.1,49.3,28.79,SE,135,8.1,8.1,33,0.00,CLR,,0.00,WeatherDisplay:10.37,2013-09-27 20:03:00,
2013-09-27 15:04:00,81.1,48.5,28.79,SSE,158,9.2,9.2,32,0.00,CLR,,0.00,WeatherDisplay:10.37,2013-09-27 20:04:00,
2013-09-27 15:05:00,81.1,49.3,28.79,ESE,112,11.5,11.5,33,0.00,CLR,,0.00,WeatherDisplay:10.37,2013-09-27 20:05:00,
2013-09-27 15:07:00,81.1,48.5,28.79,SSW,202,12.3,12.3,32,0.00,CLR,,0.00,WeatherDisplay:10.37,2013-09-27 20:07:00,
2013-09-27 15:08:00,81.0,49.1,28.79,SW,225,18.4,18.4,33,0.00,CLR,,0.00,WeatherDisplay:10.37,2013-09-27 20:08:00,
2013-09-27 15:09:00,80.8,48.2,28.82,SSE,158,13.8,13.8,32,0.00,CLR,,0.00,WeatherDisplay:10.37,2013-09-27 20:09:00,
2013-09-27 15:10:00,80.8,49.0,28.82,SSE,158,10.4,10.4,33,0.00,CLR,,0.00,WeatherDisplay:10.37,2013-09-27 20:10:00,
2013-09-27 15:12:00,81.1,49.3,28.82,South,180,11.5,11.5,33,0.00,CLR,,0.00,WeatherDisplay:10.37,2013-09-27 20:12:00,
2013-09-27 15:13:00,81.1,48.5,28.82,SSW,202,10.4,10.4,32,0.00,CLR,,0.00,WeatherDisplay:10.37,2013-09-27 20:13:00,
2013-09-27 15:15:00,81.3,49.5,28.82,SE,135,8.1,8.1,33,0.00,CLR,,0.00,WeatherDisplay:10.37,2013-09-27 20:15:00,
2013-09-27 15:16:00,81.3,49.5,28.82,East,90,8.1,8.1,33,0.00,CLR,,0.00,WeatherDisplay:10.37,2013-09-27 20:16:00,
2013-09-27 15:17:00,81.1,48.5,28.82,SSE,158,9.7,9.7,32,0.00,CLR,,0.00,WeatherDisplay:10.37,2013-09-27 20:17:00,
2013-09-27 15:18:00,81.1,48.5,28.82,SW,225,12.7,12.7,32,0.00,CLR,,0.00,WeatherDisplay:10.37,2013-09-27 20:18:00,
2013-09-27 15:19:00,81.1,48.5,28.82,SSE,158,12.7,12.7,32,0.00,CLR,,0.00,WeatherDisplay:10.37,2013-09-27 20:19:00,
2013-09-27 15:20:00,81.3,48.6,28.82,SSW,202,10.4,10.4,32,0.00,CLR,,0.00,WeatherDisplay:10.37,2013-09-27 20:20:00,
2013-09-27 15:21:00,81.3,48.6,28.82,SSW,202,6.0,6.7,32,0.00,CLR,,0.00,WeatherDisplay:10.37,2013-09-27 20:21:00,
2013-09-27 15:22:00,81.1,48.5,28.82,SSE,158,11.5,11.5,32,0.00,CLR,,0.00,WeatherDisplay:10.37,2013-09-27 20:22:00,
2013-09-27 15:23:00,81.3,49.5,28.82,SSE,158,9.2,9.2,33,0.00,CLR,,0.00,WeatherDisplay:10.37,2013-09-27 20:23:00,
2013-09-27 15:24:00,81.3,49.5,28.82,NNE,22,9.2,9.2,33,0.00,CLR,,0.00,WeatherDisplay:10.37,2013-09-27 20:24:00,
2013-09-27 15:25:00,81.5,49.6,28.76,SSE,158,8.1,8.1,33,0.00,CLR,,0.00,WeatherDisplay:10.37,2013-09-27 20:25:00,
2013-09-27 15:26:00,81.5,49.6,28.76,SSE,158,8.1,8.1,33,0.00,CLR,,0.00,WeatherDisplay:10.37,2013-09-27 20:26:00,
2013-09-27 15:27:00,81.5,49.6,28.76,NW,315,6.9,6.9,33,0.00,CLR,,0.00,WeatherDisplay:10.37,2013-09-27 20:27:00,
2013-09-27 15:28:00,81.9,49.9,28.76,SSE,158,4.6,4.6,33,0.00,CLR,,0.00,WeatherDisplay:10.37,2013-09-27 20:28:00,
2013-09-27 15:29:00,81.9,49.9,28.76,South,180,5.8,5.8,33,0.00,CLR,,0.00,WeatherDisplay:10.37,2013-09-27 20:29:00,
2013-09-27 15:30:00,81.3,48.6,28.76,SSW,202,12.7,12.7,32,0.00,CLR,,0.00,WeatherDisplay:10.37,2013-09-27 20:30:00,
2013-09-27 15:32:00,81.1,49.3,28.76,SSW,202,9.2,9.2,33,0.00,CLR,,0.00,WeatherDisplay:10.37,2013-09-27 20:32:00,
2013-09-27 15:33:00,81.1,49.3,28.76,South,180,6.9,6.9,33,0.00,CLR,,0.00,WeatherDisplay:10.37,2013-09-27 20:33:00,
2013-09-27 15:34:00,81.1,49.3,28.76,South,180,5.8,5.8,33,0.00,CLR,,0.00,WeatherDisplay:10.37,2013-09-27 20:34:00,
2013-09-27 15:36:00,81.3,49.5,28.76,SSE,158,6.9,6.9,33,0.00,CLR,,0.00,WeatherDisplay:10.37,2013-09-27 20:36:00,
2013-09-27 15:37:00,81.3,50.3,28.76,South,180,8.1,8.1,34,0.00,CLR,,0.00,WeatherDisplay:10.37,2013-09-27 20:37:00,
2013-09-27 15:38:00,81.3,49.5,28.76,South,180,10.4,10.4,33,0.00,CLR,,0.00,WeatherDisplay:10.37,2013-09-27 20:38:00,
2013-09-27 15:39:00,81.1,48.5,28.76,WSW,248,9.4,9.4,32,0.00,CLR,,0.00,WeatherDisplay:10.37,2013-09-27 20:39:00,
2013-09-27 15:41:00,81.3,48.6,28.79,ESE,112,9.2,9.2,32,0.00,CLR,,0.00,WeatherDisplay:10.37,2013-09-27 20:41:00,
2013-09-27 15:43:00,81.5,48.8,28.79,SSW,202,8.1,8.1,32,0.00,CLR,,0.00,WeatherDisplay:10.37,2013-09-27 20:43:00,
2013-09-27 15:44:00,81.3,47.8,28.79,SSE,158,8.1,8.1,31,0.00,CLR,,0.00,WeatherDisplay:10.37,2013-09-27 20:44:00,
2013-09-27 15:46:00,81.5,47.9,28.79,SE,135,6.9,9.7,31,0.00,CLR,,0.00,WeatherDisplay:10.37,2013-09-27 20:46:00,
2013-09-27 15:48:00,81.0,47.5,28.79,South,180,9.2,9.2,31,0.00,CLR,,0.00,WeatherDisplay:10.37,2013-09-27 20:48:00,
2013-09-27 15:49:00,81.1,47.6,28.79,SSE,158,9.2,9.2,31,0.00,CLR,,0.00,WeatherDisplay:10.37,2013-09-27 20:49:00,
2013-09-27 15:50:00,81.0,47.5,28.79,South,180,8.1,8.1,31,0.00,CLR,,0.00,WeatherDisplay:10.37,2013-09-27 20:50:00,
2013-09-27 15:51:00,80.8,47.3,28.79,SSE,158,10.4,10.4,31,0.00,CLR,,0.00,WeatherDisplay:10.37,2013-09-27 20:51:00,
2013-09-27 15:53:00,81.0,47.5,28.79,SSE,158,10.4,10.4,31,0.00,CLR,,0.00,WeatherDisplay:10.37,2013-09-27 20:53:00,
2013-09-27 15:54:00,80.8,47.3,28.79,SE,135,12.3,12.3,31,0.00,CLR,,0.00,WeatherDisplay:10.37,2013-09-27 20:54:00,
2013-09-27 15:55:00,80.8,47.3,28.76,SSE,158,12.7,12.7,31,0.00,CLR,,0.00,WeatherDisplay:10.37,2013-09-27 20:55:00,
2013-09-27 15:57:00,80.8,47.3,28.76,South,180,12.7,12.7,31,0.00,CLR,,0.00,WeatherDisplay:10.37,2013-09-27 20:57:00,
2013-09-27 15:58:00,80.6,47.2,28.76,South,180,16.1,16.1,31,0.00,CLR,,0.00,WeatherDisplay:10.37,2013-09-27 20:58:00,
2013-09-27 15:59:00,80.6,47.2,28.76,South,180,12.7,12.7,31,0.00,CLR,,0.00,WeatherDisplay:10.37,2013-09-27 20:59:00,
2013-09-27 16:00:00,80.6,47.2,28.76,SSE,158,9.2,9.2,31,0.00,CLR,,0.00,WeatherDisplay:10.37,2013-09-27 21:00:00,
2013-09-27 16:02:00,80.6,47.2,28.76,SSE,158,9.2,9.2,31,0.00,CLR,,0.00,WeatherDisplay:10.37,2013-09-27 21:02:00,
2013-09-27 16:03:00,80.8,47.3,28.76,South,180,9.2,9.2,31,0.00,CLR,,0.00,WeatherDisplay:10.37,2013-09-27 21:03:00,
2013-09-27 16:04:00,81.0,47.5,28.76,SE,135,8.5,8.5,31,0.00,CLR,,0.00,WeatherDisplay:10.37,2013-09-27 21:04:00,
2013-09-27 16:05:00,81.0,47.5,28.76,SSE,158,8.1,8.1,31,0.00,CLR,,0.00,WeatherDisplay:10.37,2013-09-27 21:05:00,
2013-09-27 16:07:00,81.0,47.5,28.76,SE,135,9.2,9.2,31,0.00,CLR,,0.00,WeatherDisplay:10.37,2013-09-27 21:07:00,
2013-09-27 16:08:00,81.0,47.5,28.76,SSE,158,8.1,8.1,31,0.00,CLR,,0.00,WeatherDisplay:10.37,2013-09-27 21:08:00,
2013-09-27 16:10:00,80.8,47.3,28.76,SSE,158,17.3,17.3,31,0.00,CLR,,0.00,WeatherDisplay:10.37,2013-09-27 21:10:00,
2013-09-27 16:11:00,80.6,47.2,28.76,SSE,158,12.7,12.7,31,0.00,CLR,,0.00,WeatherDisplay:10.37,2013-09-27 21:11:00,
2013-09-27 16:12:00,80.4,47.0,28.76,SSE,158,15.0,15.0,31,0.00,CLR,,0.00,WeatherDisplay:10.37,2013-09-27 21:12:00,
2013-09-27 16:14:00,80.4,47.9,28.76,South,180,9.2,9.2,32,0.00,CLR,,0.00,WeatherDisplay:10.37,2013-09-27 21:14:00,
2013-09-27 16:15:00,80.8,48.2,28.76,SW,225,9.2,9.2,32,0.00,CLR,,0.00,WeatherDisplay:10.37,2013-09-27 21:15:00,
2013-09-27 16:16:00,80.8,48.2,28.76,South,180,15.2,15.2,32,0.00,CLR,,0.00,WeatherDisplay:10.37,2013-09-27 21:16:00,
2013-09-27 16:18:00,80.4,47.9,28.76,SSE,158,16.1,16.1,32,0.00,CLR,,0.00,WeatherDisplay:10.37,2013-09-27 21:18:00,
2013-09-27 16:19:00,80.6,48.0,28.76,SW,225,5.6,5.6,32,0.00,CLR,,0.00,WeatherDisplay:10.37,2013-09-27 21:19:00,
2013-09-27 16:20:00,80.8,48.2,28.76,SSE,158,9.2,9.2,32,0.00,CLR,,0.00,WeatherDisplay:10.37,2013-09-27 21:20:00,
2013-09-27 16:21:00,80.8,48.2,28.76,East,90,5.8,5.8,32,0.00,CLR,,0.00,WeatherDisplay:10.37,2013-09-27 21:21:00,
2013-09-27 16:22:00,80.8,48.2,28.76,ESE,112,4.6,4.6,32,0.00,CLR,,0.00,WeatherDisplay:10.37,2013-09-27 21:22:00,
2013-09-27 16:23:00,80.8,48.2,28.76,SSE,158,6.9,6.9,32,0.00,CLR,,0.00,WeatherDisplay:10.37,2013-09-27 21:23:00,
2013-09-27 16:25:00,80.8,47.3,28.79,SE,135,13.8,13.8,31,0.00,CLR,,0.00,WeatherDisplay:10.37,2013-09-27 21:25:00,
2013-09-27 16:26:00,80.6,48.0,28.79,SSE,158,8.1,8.1,32,0.00,CLR,,0.00,WeatherDisplay:10.37,2013-09-27 21:26:00,
2013-09-27 16:27:00,80.6,48.0,28.79,SSE,158,8.1,8.1,32,0.00,CLR,,0.00,WeatherDisplay:10.37,2013-09-27 21:27:00,
2013-09-27 16:28:00,80.6,47.2,28.79,SE,135,10.4,10.4,31,0.00,CLR,,0.00,WeatherDisplay:10.37,2013-09-27 21:28:00,
2013-09-27 16:29:00,80.6,47.2,28.79,South,180,10.4,10.4,31,0.00,CLR,,0.00,WeatherDisplay:10.37,2013-09-27 21:29:00,
2013-09-27 16:30:00,80.4,47.9,28.79,SSE,158,10.7,10.7,32,0.00,CLR,,0.00,WeatherDisplay:10.37,2013-09-27 21:30:00,
2013-09-27 16:31:00,80.4,47.9,28.79,SSE,158,17.3,17.3,32,0.00,CLR,,0.00,WeatherDisplay:10.37,2013-09-27 21:31:00,
2013-09-27 16:32:00,80.1,46.7,28.79,SSE,158,17.3,17.3,31,0.00,CLR,,0.00,WeatherDisplay:10.37,2013-09-27 21:32:00,
2013-09-27 16:33:00,80.1,46.7,28.79,SSE,158,10.4,10.4,31,0.00,CLR,,0.00,WeatherDisplay:10.37,2013-09-27 21:33:00,
2013-09-27 16:34:00,80.1,47.5,28.79,SSW,202,10.4,10.4,32,0.00,CLR,,0.00,WeatherDisplay:10.37,2013-09-27 21:34:00,
2013-09-27 16:35:00,80.1,47.5,28.79,SE,135,6.9,6.9,32,0.00,CLR,,0.00,WeatherDisplay:10.37,2013-09-27 21:35:00,
2013-09-27 16:36:00,80.1,47.5,28.79,SSE,158,9.0,9.0,32,0.00,CLR,,0.00,WeatherDisplay:10.37,2013-09-27 21:36:00,
2013-09-27 16:37:00,80.1,47.5,28.79,South,180,9.2,9.2,32,0.00,CLR,,0.00,WeatherDisplay:10.37,2013-09-27 21:37:00,
2013-09-27 16:38:00,80.1,47.5,28.79,SE,135,8.1,8.1,32,0.00,CLR,,0.00,WeatherDisplay:10.37,2013-09-27 21:38:00,
2013-09-27 16:39:00,80.2,47.7,28.79,South,180,9.2,9.2,32,0.00,CLR,,0.00,WeatherDisplay:10.37,2013-09-27 21:39:00,
2013-09-27 16:40:00,80.1,47.5,28.79,SW,225,6.9,6.9,32,0.00,CLR,,0.00,WeatherDisplay:10.37,2013-09-27 21:40:00,
2013-09-27 16:41:00,80.2,47.7,28.79,SE,135,8.5,8.5,32,0.00,CLR,,0.00,WeatherDisplay:10.37,2013-09-27 21:41:00,
2013-09-27 16:42:00,80.2,47.7,28.79,South,180,10.4,10.4,32,0.00,CLR,,0.00,WeatherDisplay:10.37,2013-09-27 21:42:00,
2013-09-27 16:44:00,79.9,47.4,28.79,South,180,15.0,15.0,32,0.00,CLR,,0.00,WeatherDisplay:10.37,2013-09-27 21:44:00,
2013-09-27 16:46:00,79.7,47.2,28.79,South,180,11.8,11.8,32,0.00,CLR,,0.00,WeatherDisplay:10.37,2013-09-27 21:46:00,
2013-09-27 16:47:00,79.7,47.2,28.79,SE,135,11.5,11.5,32,0.00,CLR,,0.00,WeatherDisplay:10.37,2013-09-27 21:47:00,
2013-09-27 16:49:00,79.7,47.2,28.79,SSE,158,8.5,8.5,32,0.00,CLR,,0.00,WeatherDisplay:10.37,2013-09-27 21:49:00,
2013-09-27 16:50:00,79.7,47.2,28.79,South,180,8.1,8.1,32,0.00,CLR,,0.00,WeatherDisplay:10.37,2013-09-27 21:50:00,
2013-09-27 16:51:00,79.7,47.2,28.79,South,180,9.2,9.2,32,0.00,CLR,,0.00,WeatherDisplay:10.37,2013-09-27 21:51:00,
2013-09-27 16:52:00,79.7,47.2,28.79,SSW,202,12.7,12.7,32,0.00,CLR,,0.00,WeatherDisplay:10.37,2013-09-27 21:52:00,
2013-09-27 16:55:00,79.6,46.3,28.79,SSE,164,8.0,13.0,31,0.00,CLR,,0.00,WeatherDisplay:10.37,2013-09-27 21:55:00,
2013-09-27 16:56:00,79.5,46.2,28.79,South,180,9.2,9.2,31,0.00,CLR,,0.00,WeatherDisplay:10.37,2013-09-27 21:56:00,
2013-09-27 16:57:00,79.3,46.1,28.79,SE,135,10.4,10.4,31,0.00,CLR,,0.00,WeatherDisplay:10.37,2013-09-27 21:57:00,
2013-09-27 17:00:00,79.2,45.9,28.79,SE,135,11.5,11.5,31,0.00,CLR,,0.00,WeatherDisplay:10.37,2013-09-27 22:00:00,
2013-09-27 17:01:00,79.2,45.9,28.79,SSE,158,11.5,11.5,31,0.00,CLR,,0.00,WeatherDisplay:10.37,2013-09-27 22:01:00,
2013-09-27 17:02:00,79.2,45.9,28.79,ESE,112,8.1,8.1,31,0.00,CLR,,0.00,WeatherDisplay:10.37,2013-09-27 22:02:00,
2013-09-27 17:05:00,79.0,45.8,28.79,South,180,8.1,8.1,31,0.00,CLR,,0.00,WeatherDisplay:10.37,2013-09-27 22:05:00,
2013-09-27 17:06:00,79.2,45.9,28.79,SSE,158,6.9,6.9,31,0.00,CLR,,0.00,WeatherDisplay:10.37,2013-09-27 22:06:00,
2013-09-27 17:07:00,79.2,45.9,28.79,South,180,6.9,6.9,31,0.00,CLR,,0.00,WeatherDisplay:10.37,2013-09-27 22:07:00,
2013-09-27 17:10:00,79.0,45.8,28.79,SSE,158,8.1,8.1,31,0.00,CLR,,0.00,WeatherDisplay:10.37,2013-09-27 22:10:00,
2013-09-27 17:11:00,78.6,45.4,28.79,South,180,6.9,6.9,31,0.00,CLR,,0.00,WeatherDisplay:10.37,2013-09-27 22:11:00,
2013-09-27 17:12:00,78.8,45.6,28.79,SSW,202,9.8,9.8,31,0.00,CLR,,0.00,WeatherDisplay:10.37,2013-09-27 22:12:00,
2013-09-27 17:13:00,78.8,44.7,28.79,SE,135,12.7,12.7,30,0.00,CLR,,0.00,WeatherDisplay:10.37,2013-09-27 22:13:00,
2013-09-27 17:15:00,78.8,44.7,28.79,SSE,158,9.2,9.2,30,0.00,CLR,,0.00,WeatherDisplay:10.37,2013-09-27 22:15:00,
2013-09-27 17:17:00,78.8,44.7,28.79,South,180,8.1,8.1,30,0.00,CLR,,0.00,WeatherDisplay:10.37,2013-09-27 22:17:00,
2013-09-27 17:18:00,78.8,44.7,28.79,SSE,158,11.5,11.5,30,0.00,CLR,,0.00,WeatherDisplay:10.37,2013-09-27 22:18:00,
2013-09-27 17:20:00,78.6,45.4,28.79,SSW,202,6.9,6.9,31,0.00,CLR,,0.00,WeatherDisplay:10.37,2013-09-27 22:20:00,
2013-09-27 17:22:00,78.6,45.4,28.79,SSW,202,6.4,6.4,31,0.00,CLR,,0.00,WeatherDisplay:10.37,2013-09-27 22:22:00,
2013-09-27 17:23:00,78.6,45.4,28.79,SE,135,8.1,8.1,31,0.00,CLR,,0.00,WeatherDisplay:10.37,2013-09-27 22:23:00,
2013-09-27 17:25:00,78.4,45.3,28.79,SSW,202,8.1,8.1,31,0.00,CLR,,0.00,WeatherDisplay:10.37,2013-09-27 22:25:00,
2013-09-27 17:27:00,78.4,45.3,28.79,SSE,158,9.2,9.2,31,0.00,CLR,,0.00,WeatherDisplay:10.37,2013-09-27 22:27:00,
2013-09-27 17:28:00,78.4,45.3,28.79,SSE,158,9.2,9.2,31,0.00,CLR,,0.00,WeatherDisplay:10.37,2013-09-27 22:28:00,
2013-09-27 17:30:00,78.3,45.1,28.79,SSE,158,5.9,5.9,31,0.00,CLR,,0.00,WeatherDisplay:10.37,2013-09-27 22:30:00,
2013-09-27 17:33:00,78.3,45.1,28.79,SE,135,9.2,9.2,31,0.00,CLR,,0.00,WeatherDisplay:10.37,2013-09-27 22:33:00,
2013-09-27 17:36:00,78.1,45.0,28.79,SSE,158,8.1,8.1,31,0.00,CLR,,0.00,WeatherDisplay:10.37,2013-09-27 22:36:00,
2013-09-27 17:38:00,77.9,44.0,28.79,SE,135,15.0,15.0,30,0.00,CLR,,0.00,WeatherDisplay:10.37,2013-09-27 22:38:00,
2013-09-27 17:39:00,78.1,45.0,28.79,SSE,158,12.7,12.7,31,0.00,CLR,,0.00,WeatherDisplay:10.37,2013-09-27 22:39:00,
2013-09-27 17:41:00,77.7,44.7,28.79,South,180,10.4,10.4,31,0.00,CLR,,0.00,WeatherDisplay:10.37,2013-09-27 22:41:00,
2013-09-27 17:43:00,77.7,44.7,28.79,South,180,10.5,10.5,31,0.00,CLR,,0.00,WeatherDisplay:10.37,2013-09-27 22:43:00,
2013-09-27 17:44:00,77.5,44.5,28.79,South,180,10.4,10.4,31,0.00,CLR,,0.00,WeatherDisplay:10.37,2013-09-27 22:44:00,
2013-09-27 17:47:00,77.4,44.4,28.79,SE,135,9.2,9.2,31,0.00,CLR,,0.00,WeatherDisplay:10.37,2013-09-27 22:47:00,
2013-09-27 17:48:00,77.4,44.4,28.79,South,180,9.2,9.2,31,0.00,CLR,,0.00,WeatherDisplay:10.37,2013-09-27 22:48:00,
2013-09-27 17:49:00,77.4,44.4,28.79,SE,135,9.2,9.2,31,0.00,CLR,,0.00,WeatherDisplay:10.37,2013-09-27 22:49:00,
2013-09-27 17:52:00,77.2,44.2,28.79,SSE,158,5.8,5.8,31,0.00,CLR,,0.00,WeatherDisplay:10.37,2013-09-27 22:52:00,
2013-09-27 17:53:00,77.2,44.2,28.79,SSE,158,6.9,6.9,31,0.00,CLR,,0.00,WeatherDisplay:10.37,2013-09-27 22:53:00,
2013-09-27 17:54:00,77.2,44.2,28.79,South,180,8.7,8.7,31,0.00,CLR,,0.00,WeatherDisplay:10.37,2013-09-27 22:54:00,
2013-09-27 17:59:00,76.8,43.9,28.79,South,180,8.1,8.1,31,0.00,CLR,,0.00,WeatherDisplay:10.37,2013-09-27 22:59:00,
2013-09-27 18:01:00,76.8,43.9,28.79,SE,135,8.1,8.1,31,0.00,CLR,,0.00,WeatherDisplay:10.37,2013-09-27 23:01:00,
2013-09-27 18:04:00,76.3,44.2,28.79,WSW,248,8.1,8.1,32,0.00,CLR,,0.00,WeatherDisplay:10.37,2013-09-27 23:04:00,
2013-09-27 18:07:00,76.1,44.1,28.79,SE,135,11.8,11.8,32,0.00,CLR,,0.00,WeatherDisplay:10.37,2013-09-27 23:07:00,
2013-09-27 18:09:00,75.9,43.9,28.79,South,180,9.2,9.2,32,0.00,CLR,,0.00,WeatherDisplay:10.37,2013-09-27 23:09:00,
2013-09-27 18:10:00,75.9,43.9,28.79,SSE,158,8.1,8.1,32,0.00,CLR,,0.00,WeatherDisplay:10.37,2013-09-27 23:10:00,
2013-09-27 18:12:00,75.7,43.8,28.79,ESE,112,13.8,13.8,32,0.00,CLR,,0.00,WeatherDisplay:10.37,2013-09-27 23:12:00,
2013-09-27 18:14:00,75.6,43.6,28.79,SSE,158,8.1,8.1,32,0.00,CLR,,0.00,WeatherDisplay:10.37,2013-09-27 23:14:00,
2013-09-27 18:15:00,75.4,43.5,28.79,SSE,158,9.2,9.2,32,0.00,CLR,,0.00,WeatherDisplay:10.37,2013-09-27 23:15:00,
2013-09-27 18:17:00,75.2,43.3,28.79,SSE,158,8.1,8.1,32,0.00,CLR,,0.00,WeatherDisplay:10.37,2013-09-27 23:17:00,
2013-09-27 18:19:00,75.0,44.0,28.79,SSE,158,6.9,6.9,33,0.00,CLR,,0.00,WeatherDisplay:10.37,2013-09-27 23:19:00,
2013-09-27 18:20:00,75.0,44.0,28.79,SSE,158,6.9,6.9,33,0.00,CLR,,0.00,WeatherDisplay:10.37,2013-09-27 23:20:00,
2013-09-27 18:23:00,74.7,43.6,28.79,SSE,158,7.1,7.1,33,0.00,CLR,,0.00,WeatherDisplay:10.37,2013-09-27 23:23:00,
2013-09-27 18:24:00,74.5,43.5,28.76,South,180,6.9,6.9,33,0.00,CLR,,0.00,WeatherDisplay:10.37,2013-09-27 23:24:00,
2013-09-27 18:25:00,74.5,43.5,28.76,SSE,158,6.0,6.0,33,0.00,CLR,,0.00,WeatherDisplay:10.37,2013-09-27 23:25:00,
2013-09-27 18:26:00,74.3,43.3,28.76,SSE,158,5.8,5.8,33,0.00,CLR,,0.00,WeatherDisplay:10.37,2013-09-27 23:26:00,
2013-09-27 18:28:00,74.3,43.3,28.76,SSE,158,6.9,6.9,33,0.00,CLR,,0.00,WeatherDisplay:10.37,2013-09-27 23:28:00,
2013-09-27 18:29:00,74.1,43.9,28.76,SSE,158,6.9,6.9,34,0.00,CLR,,0.00,WeatherDisplay:10.37,2013-09-27 23:29:00,
2013-09-27 18:30:00,74.1,43.9,28.76,SSE,158,6.9,6.9,34,0.00,CLR,,0.00,WeatherDisplay:10.37,2013-09-27 23:30:00,
2013-09-27 18:31:00,73.9,43.8,28.76,ESE,112,5.8,5.8,34,0.00,CLR,,0.00,WeatherDisplay:10.37,2013-09-27 23:31:00,
2013-09-27 18:33:00,73.8,43.6,28.76,SSE,158,5.8,5.8,34,0.00,CLR,,0.00,WeatherDisplay:10.37,2013-09-27 23:33:00,
2013-09-27 18:34:00,73.6,43.5,28.76,South,180,5.9,5.9,34,0.00,CLR,,0.00,WeatherDisplay:10.37,2013-09-27 23:34:00,
2013-09-27 18:35:00,73.6,43.5,28.76,South,180,5.9,5.9,34,0.00,CLR,,0.00,WeatherDisplay:10.37,2013-09-27 23:35:00,
2013-09-27 18:36:00,73.6,43.5,28.76,SSE,158,6.9,6.9,34,0.00,CLR,,0.00,WeatherDisplay:10.37,2013-09-27 23:36:00,
2013-09-27 18:38:00,73.2,43.9,28.76,SSW,202,5.9,5.9,35,0.00,CLR,,0.00,WeatherDisplay:10.37,2013-09-27 23:38:00,
2013-09-27 18:39:00,73.2,43.9,28.79,South,180,5.8,5.8,35,0.00,CLR,,0.00,WeatherDisplay:10.37,2013-09-27 23:39:00,
2013-09-27 18:41:00,73.0,43.8,28.79,SSE,158,4.9,4.9,35,0.00,CLR,,0.00,WeatherDisplay:10.37,2013-09-27 23:41:00,
2013-09-27 18:43:00,72.9,43.6,28.79,SSE,158,5.8,5.8,35,0.00,CLR,,0.00,WeatherDisplay:10.37,2013-09-27 23:43:00,
2013-09-27 18:44:00,72.7,43.4,28.79,SSE,158,6.9,6.9,35,0.00,CLR,,0.00,WeatherDisplay:10.37,2013-09-27 23:44:00,
2013-09-27 18:46:00,72.7,43.4,28.79,SSE,158,5.8,5.8,35,0.00,CLR,,0.00,WeatherDisplay:10.37,2013-09-27 23:46:00,
2013-09-27 18:47:00,72.7,43.4,28.79,South,180,5.8,5.8,35,0.00,CLR,,0.00,WeatherDisplay:10.37,2013-09-27 23:47:00,
2013-09-27 18:48:00,72.7,43.4,28.79,ESE,112,5.8,5.8,35,0.00,CLR,,0.00,WeatherDisplay:10.37,2013-09-27 23:48:00,
2013-09-27 18:49:00,72.5,43.3,28.79,SSE,158,6.9,6.9,35,0.00,CLR,,0.00,WeatherDisplay:10.37,2013-09-27 23:49:00,
2013-09-27 18:51:00,72.5,43.3,28.79,SSE,158,6.9,6.9,35,0.00,CLR,,0.00,WeatherDisplay:10.37,2013-09-27 23:51:00,
2013-09-27 18:52:00,72.3,43.1,28.79,South,180,6.9,6.9,35,0.00,CLR,,0.00,WeatherDisplay:10.37,2013-09-27 23:52:00,
2013-09-27 18:53:00,72.3,43.1,28.79,SSE,158,6.9,6.9,35,0.00,CLR,,0.00,WeatherDisplay:10.37,2013-09-27 23:53:00,
2013-09-27 18:55:00,72.3,43.1,28.79,SE,135,6.9,6.9,35,0.00,CLR,,0.00,WeatherDisplay:10.37,2013-09-27 23:55:00,
2013-09-27 18:56:00,72.1,43.0,28.79,SSE,158,5.8,5.8,35,0.00,CLR,,0.00,WeatherDisplay:10.37,2013-09-27 23:56:00,
2013-09-27 18:57:00,72.1,43.0,28.79,SSE,158,5.8,5.8,35,0.00,CLR,,0.00,WeatherDisplay:10.37,2013-09-27 23:57:00,
2013-09-27 18:58:00,72.0,42.8,28.79,SE,135,5.8,5.8,35,0.00,CLR,,0.00,WeatherDisplay:10.37,2013-09-27 23:58:00,
2013-09-27 19:00:00,71.8,43.4,28.79,SE,135,5.8,5.8,36,0.00,CLR,,0.00,WeatherDisplay:10.37,2013-09-28 00:00:00,
2013-09-27 19:01:00,71.8,43.4,28.79,SSE,158,4.6,4.6,36,0.00,CLR,,0.00,WeatherDisplay:10.37,2013-09-28 00:01:00,
2013-09-27 19:02:00,71.8,43.4,28.79,SSE,158,6.0,6.0,36,0.00,CLR,,0.00,WeatherDisplay:10.37,2013-09-28 00:02:00,
2013-09-27 19:04:00,71.6,43.2,28.79,South,180,5.8,5.8,36,0.00,CLR,,0.00,WeatherDisplay:10.37,2013-09-28 00:04:00,
2013-09-27 19:05:00,71.4,43.1,28.79,South,180,4.6,4.6,36,0.00,CLR,,0.00,WeatherDisplay:10.37,2013-09-28 00:05:00,
2013-09-27 19:06:00,71.4,43.1,28.79,West,270,4.6,4.6,36,0.00,CLR,,0.00,WeatherDisplay:10.37,2013-09-28 00:06:00,
2013-09-27 19:07:00,71.2,42.9,28.79,SSE,158,5.8,5.8,36,0.00,CLR,,0.00,WeatherDisplay:10.37,2013-09-28 00:07:00,
2013-09-27 19:10:00,70.9,43.3,28.76,SE,135,4.6,4.6,37,0.00,CLR,,0.00,WeatherDisplay:10.37,2013-09-28 00:10:00,
2013-09-27 19:11:00,70.9,43.3,28.76,SSE,158,4.6,4.6,37,0.00,CLR,,0.00,WeatherDisplay:10.37,2013-09-28 00:11:00,
2013-09-27 19:12:00,70.9,43.3,28.76,SSE,158,4.6,4.6,37,0.00,CLR,,0.00,WeatherDisplay:10.37,2013-09-28 00:12:00,
2013-09-27 19:13:00,70.7,43.1,28.76,SSE,158,4.6,4.6,37,0.00,CLR,,0.00,WeatherDisplay:10.37,2013-09-28 00:13:00,
2013-09-27 19:16:00,70.5,43.0,28.76,SSE,158,4.6,4.6,37,0.00,CLR,,0.00,WeatherDisplay:10.37,2013-09-28 00:16:00,
2013-09-27 19:17:00,70.5,43.0,28.76,SSE,158,4.6,4.6,37,0.00,CLR,,0.00,WeatherDisplay:10.37,2013-09-28 00:17:00,
2013-09-27 19:18:00,70.3,42.8,28.76,SSE,158,4.6,4.6,37,0.00,CLR,,0.00,WeatherDisplay:10.37,2013-09-28 00:18:00,
2013-09-27 19:21:00,70.0,43.2,28.76,SE,135,3.5,3.5,38,0.00,CLR,,0.00,WeatherDisplay:10.37,2013-09-28 00:21:00,
2013-09-27 19:22:00,70.0,43.2,28.76,SSE,158,2.6,2.6,38,0.00,CLR,,0.00,WeatherDisplay:10.37,2013-09-28 00:22:00,
2013-09-27 19:23:00,69.8,43.0,28.76,SSE,158,2.3,2.3,38,0.00,CLR,,0.00,WeatherDisplay:10.37,2013-09-28 00:23:00,
2013-09-27 19:26:00,69.4,43.4,28.79,South,180,1.2,0.0,39,0.00,CLR,,0.00,WeatherDisplay:10.37,2013-09-28 00:26:00,
2013-09-27 19:28:00,69.4,43.4,28.79,South,180,1.6,0.0,39,0.00,CLR,,0.00,WeatherDisplay:10.37,2013-09-28 00:28:00,
2013-09-27 19:31:00,68.2,42.9,28.79,South,180,0.0,0.0,40,0.00,CLR,,0.00,WeatherDisplay:10.37,2013-09-28 00:31:00,
2013-09-27 19:32:00,68.2,42.9,28.79,South,180,0.0,0.0,40,0.00,CLR,,0.00,WeatherDisplay:10.37,2013-09-28 00:32:00,
2013-09-27 19:33:00,68.0,42.8,28.79,South,180,0.0,0.0,40,0.00,CLR,,0.00,WeatherDisplay:10.37,2013-09-28 00:33:00,
2013-09-27 19:36:00,67.1,42.6,28.79,South,180,0.0,0.0,41,0.00,CLR,,0.00,WeatherDisplay:10.37,2013-09-28 00:36:00,
2013-09-27 19:37:00,66.9,43.1,28.79,South,180,0.0,0.0,42,0.00,CLR,,0.00,WeatherDisplay:10.37,2013-09-28 00:37:00,
2013-09-27 19:38:00,66.6,42.7,28.79,South,180,0.0,0.0,42,0.00,CLR,,0.00,WeatherDisplay:10.37,2013-09-28 00:38:00,
2013-09-27 19:39:00,66.4,43.2,28.79,South,180,0.0,0.0,43,0.00,CLR,,0.00,WeatherDisplay:10.37,2013-09-28 00:39:00,
2013-09-27 19:41:00,65.8,42.7,28.79,SSE,158,0.0,0.0,43,0.00,CLR,,0.00,WeatherDisplay:10.37,2013-09-28 00:41:00,
2013-09-27 19:42:00,65.7,42.5,28.79,SSE,158,0.0,0.0,43,0.00,CLR,,0.00,WeatherDisplay:10.37,2013-09-28 00:42:00,
2013-09-27 19:43:00,65.7,42.5,28.79,SSE,158,0.0,0.0,43,0.00,CLR,,0.00,WeatherDisplay:10.37,2013-09-28 00:43:00,
2013-09-27 19:44:00,65.7,43.1,28.79,SSE,158,0.0,0.0,44,0.00,CLR,,0.00,WeatherDisplay:10.37,2013-09-28 00:44:00,
2013-09-27 19:45:00,65.7,43.1,28.79,SSE,158,0.0,0.0,44,0.00,CLR,,0.00,WeatherDisplay:10.37,2013-09-28 00:45:00,
2013-09-27 19:46:00,65.5,43.0,28.79,SSE,158,0.0,0.0,44,0.00,CLR,,0.00,WeatherDisplay:10.37,2013-09-28 00:46:00,
2013-09-27 19:48:00,65.5,43.6,28.79,SSE,158,0.0,0.0,45,0.00,CLR,,0.00,WeatherDisplay:10.37,2013-09-28 00:48:00,
2013-09-27 19:49:00,65.5,43.6,28.79,SSE,158,0.0,0.0,45,0.00,CLR,,0.00,WeatherDisplay:10.37,2013-09-28 00:49:00,
2013-09-27 19:50:00,64.9,43.1,28.79,South,180,0.0,0.0,45,0.00,CLR,,0.00,WeatherDisplay:10.37,2013-09-28 00:50:00,
2013-09-27 19:52:00,64.9,43.1,28.79,South,180,0.0,0.0,45,0.00,CLR,,0.00,WeatherDisplay:10.37,2013-09-28 00:52:00,
2013-09-27 19:53:00,64.4,42.6,28.79,South,180,0.0,0.0,45,0.00,CLR,,0.00,WeatherDisplay:10.37,2013-09-28 00:53:00,
2013-09-27 19:54:00,64.0,42.8,28.79,WSW,248,2.0,0.0,46,0.00,CLR,,0.00,WeatherDisplay:10.37,2013-09-28 00:54:00,
2013-09-27 19:55:00,63.9,42.7,28.79,WSW,248,2.3,2.3,46,0.00,CLR,,0.00,WeatherDisplay:10.37,2013-09-28 00:55:00,
2013-09-27 19:57:00,63.9,42.7,28.79,WSW,248,0.0,0.0,46,0.00,CLR,,0.00,WeatherDisplay:10.37,2013-09-28 00:57:00,
2013-09-27 19:58:00,63.5,42.9,28.79,WSW,248,0.0,0.0,47,0.00,CLR,,0.00,WeatherDisplay:10.37,2013-09-28 00:58:00,
2013-09-27 19:59:00,63.5,42.9,28.79,WSW,248,0.0,0.0,47,0.00,CLR,,0.00,WeatherDisplay:10.37,2013-09-28 00:59:00,
2013-09-27 20:01:00,63.0,43.0,28.79,WSW,248,0.0,0.0,48,0.00,CLR,,0.00,WeatherDisplay:10.37,2013-09-28 01:01:00,
2013-09-27 20:03:00,62.6,43.2,28.79,WSW,248,1.2,0.0,49,0.00,CLR,,0.00,WeatherDisplay:10.37,2013-09-28 01:03:00,
2013-09-27 20:04:00,62.4,43.0,28.79,WSW,248,0.0,0.0,49,0.00,CLR,,0.00,WeatherDisplay:10.37,2013-09-28 01:04:00,
2013-09-27 20:06:00,62.1,43.7,28.79,WSW,248,0.0,0.0,51,0.00,CLR,,0.00,WeatherDisplay:10.37,2013-09-28 01:06:00,
2013-09-27 20:08:00,61.7,43.4,28.79,WSW,248,0.0,0.0,51,0.00,CLR,,0.00,WeatherDisplay:10.37,2013-09-28 01:08:00,
2013-09-27 20:09:00,61.7,43.4,28.79,WSW,248,0.0,0.0,51,0.00,CLR,,0.00,WeatherDisplay:10.37,2013-09-28 01:09:00,
2013-09-27 20:11:00,61.3,44.1,28.79,WSW,248,0.0,0.0,53,0.00,CLR,,0.00,WeatherDisplay:10.37,2013-09-28 01:11:00,
2013-09-27 20:13:00,61.0,43.7,28.79,WSW,248,0.0,0.0,53,0.00,CLR,,0.00,WeatherDisplay:10.37,2013-09-28 01:13:00,
2013-09-27 20:14:00,61.0,44.2,28.79,WSW,248,0.0,0.0,54,0.00,CLR,,0.00,WeatherDisplay:10.37,2013-09-28 01:14:00,
2013-09-27 20:15:00,60.9,44.1,28.79,WSW,248,0.0,0.0,54,0.00,CLR,,0.00,WeatherDisplay:10.37,2013-09-28 01:15:00,
2013-09-27 20:17:00,60.4,43.2,28.79,WSW,248,0.0,0.0,53,0.00,CLR,,0.00,WeatherDisplay:10.37,2013-09-28 01:17:00,
2013-09-27 20:18:00,60.3,43.5,28.79,SSE,158,2.0,2.0,54,0.00,CLR,,0.00,WeatherDisplay:10.37,2013-09-28 01:18:00,
2013-09-27 20:19:00,60.1,43.4,28.79,SSE,158,2.3,2.3,54,0.00,CLR,,0.00,WeatherDisplay:10.37,2013-09-28 01:19:00,
2013-09-27 20:20:00,59.9,43.7,28.79,SSE,158,2.3,2.3,55,0.00,CLR,,0.00,WeatherDisplay:10.37,2013-09-28 01:20:00,
2013-09-27 20:22:00,59.7,43.5,28.79,SSE,158,1.2,0.0,55,0.00,CLR,,0.00,WeatherDisplay:10.37,2013-09-28 01:22:00,
2013-09-27 20:23:00,59.7,44.0,28.79,SSE,158,1.2,0.0,56,0.00,CLR,,0.00,WeatherDisplay:10.37,2013-09-28 01:23:00,
2013-09-27 20:24:00,59.5,44.3,28.79,SSE,158,0.0,0.0,57,0.00,CLR,,0.00,WeatherDisplay:10.37,2013-09-28 01:24:00,
2013-09-27 20:25:00,59.5,44.3,28.79,SSE,158,0.0,0.0,57,0.00,CLR,,0.00,WeatherDisplay:10.37,2013-09-28 01:25:00,
2013-09-27 20:27:00,59.2,44.4,28.79,SSE,158,0.0,0.0,58,0.00,CLR,,0.00,WeatherDisplay:10.37,2013-09-28 01:27:00,
2013-09-27 20:28:00,59.2,44.4,28.79,South,180,0.0,0.0,58,0.00,CLR,,0.00,WeatherDisplay:10.37,2013-09-28 01:28:00,
2013-09-27 20:29:00,59.2,43.9,28.79,West,270,1.2,0.0,57,0.00,CLR,,0.00,WeatherDisplay:10.37,2013-09-28 01:29:00,
2013-09-27 20:30:00,59.2,43.9,28.79,South,177,0.0,1.0,57,0.00,CLR,,0.00,WeatherDisplay:10.37,2013-09-28 01:30:00,
2013-09-27 20:32:00,58.8,44.5,28.79,West,270,0.0,0.0,59,0.00,CLR,,0.00,WeatherDisplay:10.37,2013-09-28 01:32:00,
2013-09-27 20:33:00,58.8,44.5,28.79,West,270,1.6,0.0,59,0.00,CLR,,0.00,WeatherDisplay:10.37,2013-09-28 01:33:00,
2013-09-27 20:34:00,58.8,44.5,28.79,West,270,2.4,0.0,59,0.00,CLR,,0.00,WeatherDisplay:10.37,2013-09-28 01:34:00,
2013-09-27 20:35:00,58.8,44.5,28.79,West,270,2.3,2.3,59,0.00,CLR,,0.00,WeatherDisplay:10.37,2013-09-28 01:35:00,
2013-09-27 20:38:00,58.8,45.4,28.79,West,270,0.0,0.0,61,0.00,CLR,,0.00,WeatherDisplay:10.37,2013-09-28 01:38:00,
2013-09-27 20:39:00,58.8,45.0,28.79,West,270,1.2,0.0,60,0.00,CLR,,0.00,WeatherDisplay:10.37,2013-09-28 01:39:00,
2013-09-27 20:40:00,58.8,45.0,28.79,West,270,0.0,2.0,60,0.00,CLR,,0.00,WeatherDisplay:10.37,2013-09-28 01:40:00,
2013-09-27 20:43:00,58.6,45.7,28.79,West,270,1.4,0.0,62,0.00,CLR,,0.00,WeatherDisplay:10.37,2013-09-28 01:43:00,
2013-09-27 20:44:00,58.6,45.7,28.79,West,270,1.4,0.0,62,0.00,CLR,,0.00,WeatherDisplay:10.37,2013-09-28 01:44:00,
2013-09-27 20:45:00,58.6,45.7,28.79,SW,225,1.2,1.2,62,0.00,CLR,,0.00,WeatherDisplay:10.37,2013-09-28 01:45:00,
2013-09-27 20:46:00,58.6,46.1,28.79,SW,225,1.2,0.0,63,0.00,CLR,,0.00,WeatherDisplay:10.37,2013-09-28 01:46:00,
2013-09-27 20:49:00,58.6,46.1,28.79,SSE,158,3.5,3.5,63,0.00,CLR,,0.00,WeatherDisplay:10.37,2013-09-28 01:49:00,
2013-09-27 20:50:00,58.6,46.5,28.79,South,180,3.5,3.5,64,0.00,CLR,,0.00,WeatherDisplay:10.37,2013-09-28 01:50:00,
2013-09-27 20:51:00,58.6,46.5,28.79,South,180,3.5,3.5,64,0.00,CLR,,0.00,WeatherDisplay:10.37,2013-09-28 01:51:00,
2013-09-27 20:54:00,58.6,46.5,28.79,SSE,158,2.3,2.3,64,0.00,CLR,,0.00,WeatherDisplay:10.37,2013-09-28 01:54:00,
2013-09-27 20:55:00,58.8,47.1,28.76,SSE,158,2.3,2.3,65,0.00,CLR,,0.00,WeatherDisplay:10.37,2013-09-28 01:55:00,
2013-09-27 20:56:00,58.8,47.1,28.76,SSE,158,1.2,1.2,65,0.00,CLR,,0.00,WeatherDisplay:10.37,2013-09-28 01:56:00,
2013-09-27 20:59:00,58.5,46.3,28.76,WSW,248,1.6,0.0,64,0.00,CLR,,0.00,WeatherDisplay:10.37,2013-09-28 01:59:00,
2013-09-27 21:00:00,58.3,46.2,28.76,WSW,248,2.3,2.3,64,0.00,CLR,,0.00,WeatherDisplay:10.37,2013-09-28 02:00:00,
2013-09-27 21:01:00,58.3,46.2,28.76,West,270,2.4,2.4,64,0.00,CLR,,0.00,WeatherDisplay:10.37,2013-09-28 02:01:00,
2013-09-27 21:05:00,58.1,46.4,28.76,West,270,2.3,2.3,65,0.00,CLR,,0.00,WeatherDisplay:10.37,2013-09-28 02:05:00,
2013-09-27 21:06:00,58.1,46.8,28.76,West,270,2.4,2.4,66,0.00,CLR,,0.00,WeatherDisplay:10.37,2013-09-28 02:06:00,
2013-09-27 21:07:00,58.1,47.2,28.76,West,270,2.3,2.3,67,0.00,CLR,,0.00,WeatherDisplay:10.37,2013-09-28 02:07:00,
2013-09-27 21:10:00,57.9,46.6,28.79,WNW,292,2.3,2.3,66,0.00,CLR,,0.00,WeatherDisplay:10.37,2013-09-28 02:10:00,
2013-09-27 21:11:00,57.7,46.9,28.79,WNW,292,1.6,0.0,67,0.00,CLR,,0.00,WeatherDisplay:10.37,2013-09-28 02:11:00,
2013-09-27 21:12:00,57.6,46.7,28.79,WNW,292,1.2,1.4,67,0.00,CLR,,0.00,WeatherDisplay:10.37,2013-09-28 02:12:00,
2013-09-27 21:15:00,57.2,45.9,28.79,West,270,2.6,2.6,66,0.00,CLR,,0.00,WeatherDisplay:10.37,2013-09-28 02:15:00,
2013-09-27 21:16:00,57.2,45.9,28.79,West,270,2.4,2.4,66,0.00,CLR,,0.00,WeatherDisplay:10.37,2013-09-28 02:16:00,
2013-09-27 21:17:00,57.0,46.6,28.79,West,270,2.3,0.0,68,0.00,CLR,,0.00,WeatherDisplay:10.37,2013-09-28 02:17:00,
2013-09-27 21:20:00,56.8,46.4,28.79,West,270,2.4,2.4,68,0.00,CLR,,0.00,WeatherDisplay:10.37,2013-09-28 02:20:00,
2013-09-27 21:21:00,56.8,46.4,28.79,West,270,2.3,2.3,68,0.00,CLR,,0.00,WeatherDisplay:10.37,2013-09-28 02:21:00,
2013-09-27 21:22:00,56.8,46.4,28.79,WSW,248,2.4,2.4,68,0.00,CLR,,0.00,WeatherDisplay:10.37,2013-09-28 02:22:00,
2013-09-27 21:23:00,56.8,46.8,28.79,WSW,248,2.3,2.3,69,0.00,CLR,,0.00,WeatherDisplay:10.37,2013-09-28 02:23:00,
2013-09-27 21:25:00,56.8,46.8,28.76,WSW,248,2.3,2.3,69,0.00,CLR,,0.00,WeatherDisplay:10.37,2013-09-28 02:25:00,
2013-09-27 21:26:00,56.8,46.8,28.76,WSW,248,2.3,2.3,69,0.00,CLR,,0.00,WeatherDisplay:10.37,2013-09-28 02:26:00,
2013-09-27 21:27:00,56.8,46.8,28.76,WSW,248,1.2,1.4,69,0.00,CLR,,0.00,WeatherDisplay:10.37,2013-09-28 02:27:00,
2013-09-27 21:29:00,56.8,46.8,28.76,WSW,248,0.0,0.0,69,0.00,CLR,,0.00,WeatherDisplay:10.37,2013-09-28 02:29:00,
2013-09-27 21:31:00,57.0,46.9,28.76,WSW,248,1.4,1.4,69,0.00,CLR,,0.00,WeatherDisplay:10.37,2013-09-28 02:31:00,
2013-09-27 21:32:00,57.2,47.1,28.76,WSW,248,1.4,0.0,69,0.00,CLR,,0.00,WeatherDisplay:10.37,2013-09-28 02:32:00,
2013-09-27 21:34:00,57.0,47.3,28.76,WSW,248,1.2,1.2,70,0.00,CLR,,0.00,WeatherDisplay:10.37,2013-09-28 02:34:00,
2013-09-27 21:36:00,57.2,47.5,28.76,SW,225,2.3,0.0,70,0.00,CLR,,0.00,WeatherDisplay:10.37,2013-09-28 02:36:00,
2013-09-27 21:37:00,57.4,48.1,28.76,SW,225,1.2,0.0,71,0.00,CLR,,0.00,WeatherDisplay:10.37,2013-09-28 02:37:00,
2013-09-27 21:39:00,57.2,47.5,28.79,SW,225,2.3,2.3,70,0.00,CLR,,0.00,WeatherDisplay:10.37,2013-09-28 02:39:00,
2013-09-27 21:41:00,57.0,47.7,28.79,SW,225,0.0,0.0,71,0.00,CLR,,0.00,WeatherDisplay:10.37,2013-09-28 02:41:00,
2013-09-27 21:43:00,56.8,47.2,28.79,WSW,248,2.3,2.3,70,0.00,CLR,,0.00,WeatherDisplay:10.37,2013-09-28 02:43:00,
2013-09-27 21:45:00,56.8,47.5,28.79,SW,236,0.0,2.0,71,0.00,CLR,,0.00,WeatherDisplay:10.37,2013-09-28 02:45:00,
2013-09-27 21:46:00,56.8,47.5,28.79,WSW,248,0.0,0.0,71,0.00,CLR,,0.00,WeatherDisplay:10.37,2013-09-28 02:46:00,
2013-09-27 21:47:00,56.8,47.5,28.79,WSW,248,0.0,0.0,71,0.00,CLR,,0.00,WeatherDisplay:10.37,2013-09-28 02:47:00,
2013-09-27 21:48:00,56.7,47.4,28.79,WSW,248,0.0,0.0,71,0.00,CLR,,0.00,WeatherDisplay:10.37,2013-09-28 02:48:00,
2013-09-27 21:50:00,56.7,47.4,28.79,WSW,248,0.0,0.0,71,0.00,CLR,,0.00,WeatherDisplay:10.37,2013-09-28 02:50:00,
2013-09-27 21:52:00,56.3,47.0,28.79,WSW,248,0.0,0.0,71,0.00,CLR,,0.00,WeatherDisplay:10.37,2013-09-28 02:52:00,
2013-09-27 21:53:00,56.3,47.4,28.79,WSW,248,0.0,0.0,72,0.00,CLR,,0.00,WeatherDisplay:10.37,2013-09-28 02:53:00,
2013-09-27 21:55:00,55.9,47.0,28.79,WSW,248,0.0,0.0,72,0.00,CLR,,0.00,WeatherDisplay:10.37,2013-09-28 02:55:00,
2013-09-27 21:57:00,55.8,46.9,28.79,WSW,248,0.0,0.0,72,0.00,CLR,,0.00,WeatherDisplay:10.37,2013-09-28 02:57:00,
2013-09-27 21:58:00,55.6,46.7,28.79,West,270,1.2,0.0,72,0.00,CLR,,0.00,WeatherDisplay:10.37,2013-09-28 02:58:00,
2013-09-27 22:01:00,55.4,46.9,28.79,West,270,1.2,0.0,73,0.00,CLR,,0.00,WeatherDisplay:10.37,2013-09-28 03:01:00,
2013-09-27 22:02:00,55.2,46.7,28.79,West,270,0.0,0.0,73,0.00,CLR,,0.00,WeatherDisplay:10.37,2013-09-28 03:02:00,
2013-09-27 22:04:00,55.0,46.5,28.79,West,270,2.3,0.0,73,0.00,CLR,,0.00,WeatherDisplay:10.37,2013-09-28 03:04:00,
2013-09-27 22:06:00,54.9,46.4,28.79,WNW,292,1.2,1.4,73,0.00,CLR,,0.00,WeatherDisplay:10.37,2013-09-28 03:06:00,
2013-09-27 22:07:00,54.9,46.4,28.79,WNW,292,1.2,1.4,73,0.00,CLR,,0.00,WeatherDisplay:10.37,2013-09-28 03:07:00,
2013-09-27 22:08:00,54.7,46.2,28.79,WNW,292,0.0,0.0,73,0.00,CLR,,0.00,WeatherDisplay:10.37,2013-09-28 03:08:00,
2013-09-27 22:09:00,54.5,46.4,28.79,WNW,292,0.0,0.0,74,0.00,CLR,,0.00,WeatherDisplay:10.37,2013-09-28 03:09:00,
2013-09-27 22:11:00,54.5,46.4,28.76,WNW,292,0.0,0.0,74,0.00,CLR,,0.00,WeatherDisplay:10.37,2013-09-28 03:11:00,
2013-09-27 22:12:00,54.5,46.4,28.76,WNW,292,0.0,0.0,74,0.00,CLR,,0.00,WeatherDisplay:10.37,2013-09-28 03:12:00,
2013-09-27 22:13:00,54.5,46.4,28.76,WNW,292,0.0,0.0,74,0.00,CLR,,0.00,WeatherDisplay:10.37,2013-09-28 03:13:00,
2013-09-27 22:14:00,54.5,46.7,28.76,WNW,292,0.0,0.0,75,0.00,CLR,,0.00,WeatherDisplay:10.37,2013-09-28 03:14:00,
2013-09-27 22:17:00,54.3,46.2,28.76,WNW,292,0.0,0.0,74,0.00,CLR,,0.00,WeatherDisplay:10.37,2013-09-28 03:17:00,
2013-09-27 22:18:00,54.3,46.2,28.76,WNW,292,0.0,0.0,74,0.00,CLR,,0.00,WeatherDisplay:10.37,2013-09-28 03:18:00,
2013-09-27 22:19:00,54.3,46.6,28.76,WNW,292,0.0,0.0,75,0.00,CLR,,0.00,WeatherDisplay:10.37,2013-09-28 03:19:00,
2013-09-27 22:22:00,54.3,46.6,28.76,WNW,292,0.0,0.0,75,0.00,CLR,,0.00,WeatherDisplay:10.37,2013-09-28 03:22:00,
2013-09-27 22:23:00,54.3,46.6,28.76,WNW,292,0.0,0.0,75,0.00,CLR,,0.00,WeatherDisplay:10.37,2013-09-28 03:23:00,
2013-09-27 22:24:00,54.3,46.9,28.76,WNW,292,0.0,0.0,76,0.00,CLR,,0.00,WeatherDisplay:10.37,2013-09-28 03:24:00,
2013-09-27 22:27:00,54.1,46.7,28.76,WNW,292,0.0,0.0,76,0.00,CLR,,0.00,WeatherDisplay:10.37,2013-09-28 03:27:00,
2013-09-27 22:28:00,54.0,46.6,28.76,WNW,292,0.0,0.0,76,0.00,CLR,,0.00,WeatherDisplay:10.37,2013-09-28 03:28:00,
2013-09-27 22:29:00,54.0,46.6,28.76,WNW,292,0.0,0.0,76,0.00,CLR,,0.00,WeatherDisplay:10.37,2013-09-28 03:29:00,
2013-09-27 22:33:00,54.1,46.7,28.76,West,270,1.2,1.4,76,0.00,CLR,,0.00,WeatherDisplay:10.37,2013-09-28 03:33:00,
2013-09-27 22:34:00,54.3,46.9,28.76,SSW,202,1.4,0.0,76,0.00,CLR,,0.00,WeatherDisplay:10.37,2013-09-28 03:34:00,
2013-09-27 22:38:00,54.5,47.8,28.76,WSW,248,1.2,0.0,78,0.00,CLR,,0.00,WeatherDisplay:10.37,2013-09-28 03:38:00,
2013-09-27 22:39:00,54.7,48.0,28.76,SW,225,2.3,2.3,78,0.00,CLR,,0.00,WeatherDisplay:10.37,2013-09-28 03:39:00,
2013-09-27 22:40:00,54.9,48.5,28.79,SSW,202,2.3,2.3,79,0.00,CLR,,0.00,WeatherDisplay:10.37,2013-09-28 03:40:00,
2013-09-27 22:43:00,55.8,49.7,28.79,WSW,248,1.2,0.0,80,0.00,CLR,,0.00,WeatherDisplay:10.37,2013-09-28 03:43:00,
2013-09-27 22:45:00,55.8,49.7,28.79,WSW,248,1.2,0.0,80,0.00,CLR,,0.00,WeatherDisplay:10.37,2013-09-28 03:45:00,
2013-09-27 22:48:00,55.6,49.5,28.79,West,270,2.3,2.3,80,0.00,CLR,,0.00,WeatherDisplay:10.37,2013-09-28 03:48:00,
2013-09-27 22:49:00,55.6,49.2,28.79,West,270,1.2,1.2,79,0.00,CLR,,0.00,WeatherDisplay:10.37,2013-09-28 03:49:00,
2013-09-27 22:50:00,55.6,49.2,28.79,WNW,292,1.2,0.0,79,0.00,CLR,,0.00,WeatherDisplay:10.37,2013-09-28 03:50:00,
2013-09-27 22:51:00,55.2,48.8,28.79,WNW,292,0.0,0.0,79,0.00,CLR,,0.00,WeatherDisplay:10.37,2013-09-28 03:51:00,
2013-09-27 22:53:00,55.2,48.8,28.79,West,270,2.3,2.3,79,0.00,CLR,,0.00,WeatherDisplay:10.37,2013-09-28 03:53:00,
2013-09-27 22:55:00,55.2,48.8,28.79,SW,225,0.0,0.0,79,0.00,CLR,,0.00,WeatherDisplay:10.37,2013-09-28 03:55:00,
2013-09-27 22:56:00,55.0,48.3,28.79,WSW,248,1.4,0.0,78,0.00,CLR,,0.00,WeatherDisplay:10.37,2013-09-28 03:56:00,
2013-09-27 22:58:00,55.2,48.8,28.79,SSW,202,1.2,1.4,79,0.00,CLR,,0.00,WeatherDisplay:10.37,2013-09-28 03:58:00,
2013-09-27 23:00:00,55.9,50.2,28.79,SSW,202,3.5,3.5,81,0.00,CLR,,0.00,WeatherDisplay:10.37,2013-09-28 04:00:00,
2013-09-27 23:01:00,56.1,50.0,28.79,WSW,248,3.5,3.5,80,0.00,CLR,,0.00,WeatherDisplay:10.37,2013-09-28 04:01:00,
2013-09-27 23:06:00,57.2,51.4,28.79,SSW,202,2.3,2.3,81,0.00,CLR,,0.00,WeatherDisplay:10.37,2013-09-28 04:06:00,
2013-09-27 23:11:00,57.2,50.4,28.79,SSE,158,0.0,0.0,78,0.00,CLR,,0.00,WeatherDisplay:10.37,2013-09-28 04:11:00,
2013-09-27 23:12:00,57.2,50.1,28.79,SSE,158,1.4,1.4,77,0.00,CLR,,0.00,WeatherDisplay:10.37,2013-09-28 04:12:00,
2013-09-27 23:16:00,57.0,49.9,28.79,SE,135,2.3,2.3,77,0.00,CLR,,0.00,WeatherDisplay:10.37,2013-09-28 04:16:00,
2013-09-27 23:17:00,57.2,50.1,28.79,SSE,158,3.5,3.5,77,0.00,CLR,,0.00,WeatherDisplay:10.37,2013-09-28 04:17:00,
2013-09-27 23:21:00,57.7,50.6,28.79,SSE,158,2.3,2.3,77,0.00,CLR,,0.00,WeatherDisplay:10.37,2013-09-28 04:21:00,
2013-09-27 23:22:00,57.7,50.6,28.79,SSE,158,2.4,2.4,77,0.00,CLR,,0.00,WeatherDisplay:10.37,2013-09-28 04:22:00,
2013-09-27 23:23:00,57.9,50.4,28.79,SE,135,2.9,2.9,76,0.00,CLR,,0.00,WeatherDisplay:10.37,2013-09-28 04:23:00,
2013-09-27 23:26:00,57.9,50.0,28.79,SSE,158,2.3,2.3,75,0.00,CLR,,0.00,WeatherDisplay:10.37,2013-09-28 04:26:00,
2013-09-27 23:27:00,57.9,50.0,28.79,South,180,2.3,2.3,75,0.00,CLR,,0.00,WeatherDisplay:10.37,2013-09-28 04:27:00,
2013-09-27 23:28:00,58.1,50.2,28.79,South,180,2.3,2.3,75,0.00,CLR,,0.00,WeatherDisplay:10.37,2013-09-28 04:28:00,
2013-09-27 23:31:00,57.9,49.7,28.79,SSW,202,1.6,0.0,74,0.00,CLR,,0.00,WeatherDisplay:10.37,2013-09-28 04:31:00,
2013-09-27 23:32:00,57.9,49.7,28.79,SSW,202,1.2,0.0,74,0.00,CLR,,0.00,WeatherDisplay:10.37,2013-09-28 04:32:00,
2013-09-27 23:33:00,57.9,49.7,28.79,SSE,158,1.2,1.2,74,0.00,CLR,,0.00,WeatherDisplay:10.37,2013-09-28 04:33:00,
2013-09-27 23:34:00,57.9,49.7,28.79,SSE,158,1.2,1.2,74,0.00,CLR,,0.00,WeatherDisplay:10.37,2013-09-28 04:34:00,
2013-09-27 23:37:00,57.7,49.5,28.79,SSW,202,2.3,2.3,74,0.00,CLR,,0.00,WeatherDisplay:10.37,2013-09-28 04:37:00,
2013-09-27 23:39:00,57.6,49.3,28.79,SSE,158,2.6,0.0,74,0.00,CLR,,0.00,WeatherDisplay:10.37,2013-09-28 04:39:00,
2013-09-27 23:42:00,58.1,50.2,28.79,South,180,1.2,1.6,75,0.00,CLR,,0.00,WeatherDisplay:10.37,2013-09-28 04:42:00,
2013-09-27 23:44:00,58.1,49.9,28.79,SW,225,1.2,0.0,74,0.00,CLR,,0.00,WeatherDisplay:10.37,2013-09-28 04:44:00,
2013-09-27 23:45:00,57.9,49.7,28.79,WSW,248,1.6,0.0,74,0.00,CLR,,0.00,WeatherDisplay:10.37,2013-09-28 04:45:00,
2013-09-27 23:47:00,57.9,49.7,28.79,SSW,202,1.2,1.2,74,0.00,CLR,,0.00,WeatherDisplay:10.37,2013-09-28 04:47:00,
2013-09-27 23:48:00,57.9,49.7,28.79,SSW,202,1.2,0.0,74,0.00,CLR,,0.00,WeatherDisplay:10.37,2013-09-28 04:48:00,
2013-09-27 23:49:00,57.9,49.7,28.79,SSW,202,0.0,0.0,74,0.00,CLR,,0.00,WeatherDisplay:10.37,2013-09-28 04:49:00,
2013-09-27 23:50:00,57.6,49.3,28.79,SSW,202,0.0,0.0,74,0.00,CLR,,0.00,WeatherDisplay:10.37,2013-09-28 04:50:00,
2013-09-27 23:52:00,57.4,48.8,28.79,SSW,202,0.0,0.0,73,0.00,CLR,,0.00,WeatherDisplay:10.37,2013-09-28 04:52:00,
2013-09-27 23:53:00,57.4,48.8,28.79,SW,225,2.3,2.3,73,0.00,CLR,,0.00,WeatherDisplay:10.37,2013-09-28 04:53:00,
2013-09-27 23:54:00,57.6,49.3,28.79,SSW,202,1.2,0.0,74,0.00,CLR,,0.00,WeatherDisplay:10.37,2013-09-28 04:54:00,
2013-09-27 23:56:00,57.6,49.3,28.79,SSW,202,0.0,0.0,74,0.00,CLR,,0.00,WeatherDisplay:10.37,2013-09-28 04:56:00,
2013-09-27 23:57:00,57.7,49.5,28.79,SSW,202,0.9,0.0,74,0.00,CLR,,0.00,WeatherDisplay:10.37,2013-09-28 04:57:00,
2013-09-27 23:58:00,57.7,49.5,28.79,SSW,202,0.0,0.0,74,0.00,CLR,,0.00,WeatherDisplay:10.37,2013-09-28 04:58:00,